Wetterdaten: Freitag, 31.03.2023
Datum Zeit Temp. Aussen Temp. o. S. Temp +5cm Feuchte Auss Luftdruck Regen Sonnenschein Regendauer Solar Windben Empfang
31.03.2023 00:00 10,6 C 9,4 C 6,1 C 91 % 1007,2 hPa 0,0 l/m 0 min 0 min 0 W/m 6,4 km/h (2 Bft) 97,87 %
31.03.2023 00:02 10,6 C 9,4 C 6,1 C 91 % 1007,2 hPa 0,0 l/m 0 min 0 min 0 W/m 9,7 km/h (2 Bft) 100,00 %
31.03.2023 00:04 10,5 C 9,4 C 6,1 C 91 % 1007,1 hPa 0,0 l/m 0 min 0 min 0 W/m 6,4 km/h (2 Bft) 97,92 %
31.03.2023 00:08 10,5 C 9,4 C 6,1 C 91 % 1007,1 hPa 0,0 l/m 0 min 0 min 0 W/m 3,2 km/h (1 Bft) 97,14 %
31.03.2023 00:10 10,5 C 9,4 C 6,1 C 91 % 1007,1 hPa 0,0 l/m 0 min 0 min 0 W/m 6,4 km/h (2 Bft) 97,14 %
31.03.2023 00:12 10,5 C 9,4 C 6,1 C 91 % 1007,1 hPa 0,0 l/m 0 min 0 min 0 W/m 3,2 km/h (1 Bft) 95,74 %
31.03.2023 00:14 10,5 C 9,4 C 6,1 C 91 % 1007,1 hPa 0,0 l/m 0 min 0 min 0 W/m 9,7 km/h (2 Bft) 97,87 %
31.03.2023 00:16 10,5 C 9,4 C 6,1 C 91 % 1007,1 hPa 0,0 l/m 0 min 0 min 0 W/m 9,7 km/h (2 Bft) 93,62 %
31.03.2023 00:18 10,5 C 10,0 C 6,1 C 91 % 1007,1 hPa 0,0 l/m 0 min 0 min 0 W/m 12,9 km/h (3 Bft) 97,87 %
31.03.2023 00:20 10,5 C 10,0 C 6,1 C 91 % 1007,0 hPa 0,0 l/m 0 min 0 min 0 W/m 6,4 km/h (2 Bft) 100,00 %
31.03.2023 00:22 10,6 C 10,0 C 6,1 C 91 % 1007,0 hPa 0,0 l/m 0 min 0 min 0 W/m 16,1 km/h (3 Bft) 100,00 %
31.03.2023 00:24 10,6 C 10,0 C 6,7 C 91 % 1007,0 hPa 0,0 l/m 0 min 0 min 0 W/m 12,9 km/h (3 Bft) 100,00 %
31.03.2023 00:26 10,6 C 10,0 C 6,7 C 92 % 1007,0 hPa 0,0 l/m 0 min 0 min 0 W/m 9,7 km/h (2 Bft) 100,00 %
31.03.2023 00:28 10,6 C 10,0 C 6,7 C 92 % 1006,9 hPa 0,0 l/m 0 min 0 min 0 W/m 9,7 km/h (2 Bft) 100,00 %
31.03.2023 00:30 10,6 C 10,0 C 6,7 C 92 % 1006,9 hPa 0,0 l/m 0 min 0 min 0 W/m 9,7 km/h (2 Bft) 97,87 %
31.03.2023 00:32 10,6 C 10,0 C 6,7 C 92 % 1006,9 hPa 0,0 l/m 0 min 0 min 0 W/m 12,9 km/h (3 Bft) 100,00 %
31.03.2023 00:34 10,6 C 10,0 C 6,7 C 92 % 1006,9 hPa 0,0 l/m 0 min 0 min 0 W/m 12,9 km/h (3 Bft) 100,00 %
31.03.2023 00:36 10,6 C 10,0 C 6,7 C 92 % 1006,9 hPa 0,0 l/m 0 min 0 min 0 W/m 16,1 km/h (3 Bft) 100,00 %
31.03.2023 00:38 10,6 C 10,0 C 6,7 C 92 % 1006,8 hPa 0,0 l/m 0 min 0 min 0 W/m 6,4 km/h (2 Bft) 97,78 %
31.03.2023 00:40 10,6 C 10,0 C 6,7 C 92 % 1006,8 hPa 0,0 l/m 0 min 0 min 0 W/m 12,9 km/h (3 Bft) 100,00 %
31.03.2023 00:42 10,6 C 10,0 C 6,7 C 92 % 1006,7 hPa 0,0 l/m 0 min 0 min 0 W/m 16,1 km/h (3 Bft) 100,00 %
31.03.2023 00:44 10,6 C 10,0 C 6,7 C 92 % 1006,7 hPa 0,0 l/m 0 min 0 min 0 W/m 12,9 km/h (3 Bft) 100,00 %
31.03.2023 00:46 10,6 C 10,0 C 6,7 C 92 % 1006,6 hPa 0,0 l/m 0 min 0 min 0 W/m 9,7 km/h (2 Bft) 100,00 %
31.03.2023 00:48 10,6 C 9,4 C 6,7 C 92 % 1006,6 hPa 0,0 l/m 0 min 0 min 0 W/m 9,7 km/h (2 Bft) 100,00 %
31.03.2023 00:50 10,6 C 9,4 C 6,7 C 92 % 1006,6 hPa 0,0 l/m 0 min 0 min 0 W/m 12,9 km/h (3 Bft) 100,00 %
31.03.2023 00:52 10,6 C 9,4 C 6,1 C 92 % 1006,6 hPa 0,0 l/m 0 min 0 min 0 W/m 16,1 km/h (3 Bft) 100,00 %
31.03.2023 00:54 10,6 C 9,4 C 6,1 C 92 % 1006,6 hPa 0,0 l/m 0 min 0 min 0 W/m 9,7 km/h (2 Bft) 100,00 %
31.03.2023 00:56 10,6 C 9,4 C 6,1 C 92 % 1006,5 hPa 0,0 l/m 0 min 0 min 0 W/m 16,1 km/h (3 Bft) 100,00 %
31.03.2023 00:58 10,5 C 9,4 C 6,1 C 92 % 1006,5 hPa 0,0 l/m 0 min 0 min 0 W/m 9,7 km/h (2 Bft) 100,00 %
31.03.2023 01:00 10,5 C 9,4 C 6,1 C 92 % 1006,5 hPa 0,0 l/m 0 min 0 min 0 W/m 9,7 km/h (2 Bft) 93,62 %
31.03.2023 01:02 10,5 C 9,4 C 6,1 C 92 % 1006,5 hPa 0,0 l/m 0 min 0 min 0 W/m 9,7 km/h (2 Bft) 100,00 %
31.03.2023 01:04 10,5 C 9,4 C 6,1 C 92 % 1006,5 hPa 0,0 l/m 0 min 0 min 0 W/m 12,9 km/h (3 Bft) 100,00 %
31.03.2023 01:06 10,4 C 9,4 C 6,1 C 92 % 1006,4 hPa 0,0 l/m 0 min 0 min 0 W/m 9,7 km/h (2 Bft) 100,00 %
31.03.2023 01:08 10,4 C 9,4 C 6,1 C 92 % 1006,4 hPa 0,0 l/m 0 min 0 min 0 W/m 16,1 km/h (3 Bft) 91,43 %
31.03.2023 01:10 10,4 C 9,4 C 6,1 C 92 % 1006,3 hPa 0,0 l/m 0 min 0 min 0 W/m 9,7 km/h (2 Bft) 100,00 %
31.03.2023 01:12 10,4 C 9,4 C 6,1 C 92 % 1006,3 hPa 0,0 l/m 0 min 0 min 0 W/m 9,7 km/h (2 Bft) 100,00 %
31.03.2023 01:14 10,4 C 9,4 C 6,1 C 92 % 1006,3 hPa 0,0 l/m 0 min 0 min 0 W/m 12,9 km/h (3 Bft) 95,74 %
31.03.2023 01:16 10,4 C 9,4 C 6,1 C 92 % 1006,3 hPa 0,0 l/m 0 min 0 min 0 W/m 12,9 km/h (3 Bft) 95,74 %
31.03.2023 01:18 10,4 C 9,4 C 6,1 C 92 % 1006,3 hPa 0,0 l/m 0 min 0 min 0 W/m 22,5 km/h (4 Bft) 97,87 %
31.03.2023 01:20 10,4 C 9,4 C 6,1 C 92 % 1006,2 hPa 0,0 l/m 0 min 0 min 0 W/m 22,5 km/h (4 Bft) 100,00 %
31.03.2023 01:22 10,4 C 10,0 C 6,7 C 92 % 1006,2 hPa 0,0 l/m 0 min 0 min 0 W/m 19,3 km/h (3 Bft) 100,00 %
31.03.2023 01:24 10,4 C 10,0 C 6,7 C 92 % 1006,2 hPa 0,0 l/m 0 min 0 min 0 W/m 16,1 km/h (3 Bft) 100,00 %
31.03.2023 01:26 10,4 C 9,4 C 6,7 C 92 % 1006,1 hPa 0,0 l/m 0 min 0 min 0 W/m 12,9 km/h (3 Bft) 100,00 %
31.03.2023 01:28 10,4 C 9,4 C 6,1 C 92 % 1006,1 hPa 0,0 l/m 0 min 0 min 0 W/m 12,9 km/h (3 Bft) 91,49 %
31.03.2023 01:30 10,4 C 9,4 C 6,1 C 92 % 1006,1 hPa 0,0 l/m 0 min 0 min 0 W/m 6,4 km/h (2 Bft) 97,87 %
31.03.2023 01:32 10,4 C 9,4 C 6,1 C 92 % 1006,0 hPa 0,0 l/m 0 min 0 min 0 W/m 9,7 km/h (2 Bft) 97,87 %
31.03.2023 01:34 10,4 C 9,4 C 6,1 C 92 % 1006,1 hPa 0,0 l/m 0 min 0 min 0 W/m 9,7 km/h (2 Bft) 95,74 %
31.03.2023 01:36 10,4 C 9,4 C 6,1 C 92 % 1006,0 hPa 0,0 l/m 0 min 0 min 0 W/m 12,9 km/h (3 Bft) 95,74 %
31.03.2023 01:38 10,4 C 9,4 C 6,1 C 92 % 1006,0 hPa 0,0 l/m 0 min 0 min 0 W/m 12,9 km/h (3 Bft) 97,87 %
31.03.2023 01:40 10,4 C 9,4 C 6,1 C 92 % 1005,9 hPa 0,0 l/m 0 min 0 min 0 W/m 6,4 km/h (2 Bft) 93,48 %
31.03.2023 01:42 10,4 C 9,4 C 6,1 C 91 % 1005,9 hPa 0,0 l/m 0 min 0 min 0 W/m 12,9 km/h (3 Bft) 95,74 %
31.03.2023 01:44 10,4 C 9,4 C 6,1 C 91 % 1005,9 hPa 0,0 l/m 0 min 0 min 0 W/m 16,1 km/h (3 Bft) 95,74 %
31.03.2023 01:46 10,3 C 9,4 C 6,1 C 91 % 1005,8 hPa 0,0 l/m 0 min 0 min 0 W/m 9,7 km/h (2 Bft) 95,74 %
31.03.2023 01:48 10,3 C 9,4 C 6,1 C 91 % 1005,8 hPa 0,0 l/m 0 min 0 min 0 W/m 16,1 km/h (3 Bft) 95,74 %
31.03.2023 01:50 10,3 C 9,4 C 6,1 C 91 % 1005,8 hPa 0,0 l/m 0 min 0 min 0 W/m 6,4 km/h (2 Bft) 95,74 %
31.03.2023 01:52 10,3 C 9,4 C 6,1 C 91 % 1005,7 hPa 0,0 l/m 0 min 0 min 0 W/m 12,9 km/h (3 Bft) 95,74 %
31.03.2023 01:54 10,3 C 9,4 C 6,1 C 91 % 1005,7 hPa 0,0 l/m 0 min 0 min 0 W/m 12,9 km/h (3 Bft) 97,83 %
31.03.2023 01:56 10,3 C 9,4 C 6,1 C 91 % 1005,6 hPa 0,0 l/m 0 min 0 min 0 W/m 12,9 km/h (3 Bft) 95,74 %
31.03.2023 01:58 10,3 C 9,4 C 6,1 C 91 % 1005,7 hPa 0,0 l/m 0 min 0 min 0 W/m 12,9 km/h (3 Bft) 93,62 %
31.03.2023 02:00 10,4 C 10,0 C 6,7 C 91 % 1005,7 hPa 0,0 l/m 0 min 0 min 0 W/m 16,1 km/h (3 Bft) 95,74 %
31.03.2023 02:02 10,4 C 10,0 C 6,7 C 91 % 1005,7 hPa 0,0 l/m 0 min 0 min 0 W/m 6,4 km/h (2 Bft) 89,36 %
31.03.2023 02:04 10,4 C 10,0 C 6,7 C 91 % 1005,6 hPa 0,0 l/m 0 min 0 min 0 W/m 9,7 km/h (2 Bft) 89,58 %
31.03.2023 02:06 10,4 C 10,0 C 6,7 C 92 % 1005,5 hPa 0,0 l/m 0 min 0 min 0 W/m 9,7 km/h (2 Bft) 95,65 %
31.03.2023 02:08 10,4 C 10,0 C 6,7 C 91 % 1005,6 hPa 0,0 l/m 0 min 0 min 0 W/m 9,7 km/h (2 Bft) 95,74 %
31.03.2023 02:10 10,4 C 10,0 C 6,7 C 91 % 1005,5 hPa 0,0 l/m 0 min 0 min 0 W/m 3,2 km/h (1 Bft) 95,74 %
31.03.2023 02:12 10,4 C 10,0 C 6,7 C 91 % 1005,5 hPa 0,0 l/m 0 min 0 min 0 W/m 6,4 km/h (2 Bft) 95,74 %
31.03.2023 02:14 10,4 C 10,0 C 6,7 C 91 % 1005,4 hPa 0,0 l/m 0 min 0 min 0 W/m 3,2 km/h (1 Bft) 97,87 %
31.03.2023 02:16 10,4 C 9,4 C 6,7 C 91 % 1005,4 hPa 0,0 l/m 0 min 0 min 0 W/m 6,4 km/h (2 Bft) 97,87 %
31.03.2023 02:18 10,4 C 10,0 C 6,7 C 91 % 1005,3 hPa 0,0 l/m 0 min 0 min 0 W/m 6,4 km/h (2 Bft) 97,87 %
31.03.2023 02:20 10,4 C 10,0 C 6,7 C 91 % 1005,3 hPa 0,0 l/m 0 min 0 min 0 W/m 9,7 km/h (2 Bft) 95,65 %
31.03.2023 02:22 10,4 C 10,0 C 6,7 C 91 % 1005,2 hPa 0,0 l/m 0 min 0 min 0 W/m 6,4 km/h (2 Bft) 97,87 %
31.03.2023 02:24 10,4 C 10,0 C 6,7 C 91 % 1005,2 hPa 0,0 l/m 0 min 0 min 0 W/m 9,7 km/h (2 Bft) 95,74 %
31.03.2023 02:26 10,4 C 10,0 C 6,7 C 91 % 1005,1 hPa 0,0 l/m 0 min 0 min 0 W/m 9,7 km/h (2 Bft) 97,87 %
31.03.2023 02:28 10,4 C 10,0 C 6,7 C 91 % 1005,2 hPa 0,0 l/m 0 min 0 min 0 W/m 6,4 km/h (2 Bft) 97,87 %
31.03.2023 02:30 10,4 C 10,0 C 6,7 C 91 % 1005,1 hPa 0,0 l/m 0 min 0 min 0 W/m 12,9 km/h (3 Bft) 97,87 %
31.03.2023 02:32 10,4 C 10,0 C 6,7 C 91 % 1005,1 hPa 0,0 l/m 0 min 0 min 0 W/m 6,4 km/h (2 Bft) 97,87 %
31.03.2023 02:34 10,5 C 10,0 C 6,7 C 91 % 1005,1 hPa 0,0 l/m 0 min 2 min 0 W/m 16,1 km/h (3 Bft) 97,83 %
31.03.2023 02:36 10,6 C 10,0 C 6,1 C 91 % 1005,1 hPa 0,0 l/m 0 min 0 min 0 W/m 19,3 km/h (3 Bft) 97,87 %
31.03.2023 02:38 10,6 C 10,0 C 6,1 C 91 % 1005,0 hPa 0,0 l/m 0 min 2 min 0 W/m 12,9 km/h (3 Bft) 95,74 %
31.03.2023 02:40 10,6 C 10,0 C 6,1 C 91 % 1004,9 hPa 0,0 l/m 0 min 2 min 0 W/m 12,9 km/h (3 Bft) 97,87 %
31.03.2023 02:42 10,6 C 10,0 C 6,1 C 91 % 1004,9 hPa 0,0 l/m 0 min 2 min 0 W/m 6,4 km/h (2 Bft) 97,87 %
31.03.2023 02:44 10,6 C 10,0 C 6,1 C 92 % 1004,8 hPa 0,0 l/m 0 min 0 min 0 W/m 6,4 km/h (2 Bft) 97,87 %
31.03.2023 02:46 10,6 C 10,0 C 6,1 C 92 % 1004,7 hPa 0,0 l/m 0 min 0 min 0 W/m 3,2 km/h (1 Bft) 97,62 %
31.03.2023 02:48 10,7 C 10,0 C 6,1 C 92 % 1004,7 hPa 0,0 l/m 0 min 0 min 0 W/m 6,4 km/h (2 Bft) 97,83 %
31.03.2023 02:50 10,7 C 10,0 C 6,1 C 92 % 1004,6 hPa 0,0 l/m 0 min 0 min 0 W/m 6,4 km/h (2 Bft) 100,00 %
31.03.2023 02:52 10,7 C 10,0 C 6,1 C 92 % 1004,5 hPa 0,0 l/m 0 min 0 min 0 W/m 6,4 km/h (2 Bft) 94,29 %
31.03.2023 02:54 10,7 C 10,0 C 6,1 C 92 % 1004,5 hPa 0,0 l/m 0 min 0 min 0 W/m 9,7 km/h (2 Bft) 95,92 %
31.03.2023 02:56 10,7 C 10,0 C 6,1 C 92 % 1004,5 hPa 0,0 l/m 0 min 0 min 0 W/m 12,9 km/h (3 Bft) 100,00 %
31.03.2023 02:58 10,7 C 10,0 C 6,1 C 92 % 1004,5 hPa 0,0 l/m 0 min 0 min 0 W/m 6,4 km/h (2 Bft) 100,00 %
31.03.2023 03:00 10,7 C 10,0 C 6,1 C 92 % 1004,5 hPa 0,0 l/m 0 min 0 min 0 W/m 9,7 km/h (2 Bft) 97,83 %
31.03.2023 03:02 10,7 C 10,0 C 6,1 C 92 % 1004,4 hPa 0,0 l/m 0 min 0 min 0 W/m 12,9 km/h (3 Bft) 95,74 %
31.03.2023 03:04 10,7 C 10,0 C 6,1 C 92 % 1004,4 hPa 0,0 l/m 0 min 0 min 0 W/m 6,4 km/h (2 Bft) 97,87 %
31.03.2023 03:06 10,7 C 10,0 C 6,1 C 92 % 1004,3 hPa 0,0 l/m 0 min 0 min 0 W/m 3,2 km/h (1 Bft) 100,00 %
31.03.2023 03:08 10,7 C 10,0 C 6,1 C 92 % 1004,3 hPa 0,0 l/m 0 min 0 min 0 W/m 3,2 km/h (1 Bft) 100,00 %
31.03.2023 03:10 10,7 C 10,0 C 6,1 C 92 % 1004,3 hPa 0,0 l/m 0 min 0 min 0 W/m 0,0 km/h (0 Bft) 100,00 %
31.03.2023 03:12 10,7 C 10,0 C 6,1 C 92 % 1004,2 hPa 0,0 l/m 0 min 0 min 0 W/m 3,2 km/h (1 Bft) 97,83 %
31.03.2023 03:14 10,7 C 10,0 C 6,1 C 92 % 1004,1 hPa 0,0 l/m 0 min 0 min 0 W/m 9,7 km/h (2 Bft) 100,00 %
31.03.2023 03:16 10,7 C 10,0 C 6,1 C 92 % 1004,1 hPa 0,0 l/m 0 min 0 min 0 W/m 6,4 km/h (2 Bft) 100,00 %
31.03.2023 03:18 10,7 C 10,0 C 6,1 C 92 % 1004,1 hPa 0,0 l/m 0 min 0 min 0 W/m 3,2 km/h (1 Bft) 100,00 %
31.03.2023 03:20 10,7 C 10,0 C 6,1 C 92 % 1004,0 hPa 0,0 l/m 0 min 0 min 0 W/m 3,2 km/h (1 Bft) 100,00 %
31.03.2023 03:22 10,6 C 10,0 C 6,1 C 92 % 1004,0 hPa 0,0 l/m 0 min 0 min 0 W/m 3,2 km/h (1 Bft) 97,92 %
31.03.2023 03:24 10,6 C 9,4 C 6,1 C 92 % 1003,9 hPa 0,0 l/m 0 min 0 min 0 W/m 3,2 km/h (1 Bft) 100,00 %
31.03.2023 03:26 10,6 C 9,4 C 6,1 C 92 % 1003,8 hPa 0,0 l/m 0 min 0 min 0 W/m 6,4 km/h (2 Bft) 97,83 %
31.03.2023 03:28 10,6 C 9,4 C 6,1 C 92 % 1003,8 hPa 0,0 l/m 0 min 0 min 0 W/m 3,2 km/h (1 Bft) 100,00 %
31.03.2023 03:30 10,6 C 9,4 C 6,1 C 92 % 1003,8 hPa 0,0 l/m 0 min 0 min 0 W/m 3,2 km/h (1 Bft) 97,87 %
31.03.2023 03:32 10,6 C 9,4 C 6,1 C 92 % 1003,7 hPa 0,0 l/m 0 min 0 min 0 W/m 6,4 km/h (2 Bft) 97,87 %
31.03.2023 03:34 10,6 C 9,4 C 6,1 C 92 % 1003,8 hPa 0,0 l/m 0 min 0 min 0 W/m 9,7 km/h (2 Bft) 95,74 %
31.03.2023 03:36 10,6 C 9,4 C 6,1 C 92 % 1003,7 hPa 0,0 l/m 0 min 0 min 0 W/m 6,4 km/h (2 Bft) 97,87 %
31.03.2023 03:38 10,6 C 10,0 C 6,7 C 92 % 1003,7 hPa 0,0 l/m 0 min 0 min 0 W/m 6,4 km/h (2 Bft) 97,83 %
31.03.2023 03:40 10,6 C 10,0 C 6,7 C 92 % 1003,7 hPa 0,0 l/m 0 min 0 min 0 W/m 9,7 km/h (2 Bft) 97,87 %
31.03.2023 03:42 10,6 C 10,0 C 6,7 C 92 % 1003,7 hPa 0,0 l/m 0 min 0 min 0 W/m 6,4 km/h (2 Bft) 95,74 %
31.03.2023 03:44 10,6 C 10,0 C 6,7 C 92 % 1003,6 hPa 0,0 l/m 0 min 0 min 0 W/m 6,4 km/h (2 Bft) 95,74 %
31.03.2023 03:46 10,6 C 10,0 C 6,7 C 92 % 1003,6 hPa 0,0 l/m 0 min 0 min 0 W/m 12,9 km/h (3 Bft) 95,74 %
31.03.2023 03:48 10,6 C 10,0 C 6,7 C 92 % 1003,6 hPa 0,0 l/m 0 min 0 min 0 W/m 12,9 km/h (3 Bft) 97,87 %
31.03.2023 03:50 10,6 C 10,0 C 6,7 C 92 % 1003,5 hPa 0,0 l/m 0 min 0 min 0 W/m 16,1 km/h (3 Bft) 97,87 %
31.03.2023 03:52 10,7 C 10,0 C 6,7 C 92 % 1003,5 hPa 0,0 l/m 0 min 0 min 0 W/m 12,9 km/h (3 Bft) 97,83 %
31.03.2023 03:54 10,7 C 10,0 C 6,7 C 92 % 1003,4 hPa 0,0 l/m 0 min 0 min 0 W/m 12,9 km/h (3 Bft) 95,83 %
31.03.2023 03:56 10,7 C 10,0 C 6,7 C 92 % 1003,4 hPa 0,0 l/m 0 min 2 min 0 W/m 16,1 km/h (3 Bft) 95,74 %
31.03.2023 03:58 10,7 C 10,0 C 6,7 C 93 % 1003,4 hPa 0,0 l/m 0 min 2 min 0 W/m 9,7 km/h (2 Bft) 93,62 %
31.03.2023 04:00 10,7 C 10,0 C 6,1 C 93 % 1003,3 hPa 0,0 l/m 0 min 2 min 0 W/m 12,9 km/h (3 Bft) 95,74 %
31.03.2023 04:05 10,8 C 10,0 C 6,1 C 93 % 1003,2 hPa 0,0 l/m 0 min 5 min 0 W/m 19,3 km/h (3 Bft) 100,00 %
31.03.2023 04:06 10,8 C 10,0 C 6,1 C 93 % 1003,1 hPa 0,0 l/m 0 min 1 min 0 W/m 19,3 km/h (3 Bft) 95,83 %
31.03.2023 04:08 10,8 C 10,0 C 6,1 C 93 % 1003,1 hPa 0,0 l/m 0 min 2 min 0 W/m 19,3 km/h (3 Bft) 97,14 %
31.03.2023 04:10 10,8 C 10,0 C 6,1 C 93 % 1003,1 hPa 0,0 l/m 0 min 2 min 0 W/m 16,1 km/h (3 Bft) 95,74 %
31.03.2023 04:12 10,8 C 10,0 C 6,1 C 93 % 1003,1 hPa 0,0 l/m 0 min 2 min 0 W/m 25,7 km/h (4 Bft) 95,74 %
31.03.2023 04:14 10,8 C 10,0 C 6,1 C 93 % 1003,2 hPa 0,0 l/m 0 min 2 min 0 W/m 35,4 km/h (5 Bft) 97,83 %
31.03.2023 04:16 10,8 C 10,0 C 6,1 C 93 % 1003,0 hPa 0,2 l/m 0 min 2 min 0 W/m 16,1 km/h (3 Bft) 97,87 %
31.03.2023 04:18 10,8 C 10,0 C 6,1 C 93 % 1003,0 hPa 0,0 l/m 0 min 2 min 0 W/m 29,0 km/h (5 Bft) 97,87 %
31.03.2023 04:20 10,9 C 10,0 C 6,1 C 93 % 1003,0 hPa 0,0 l/m 0 min 2 min 0 W/m 38,6 km/h (5 Bft) 97,87 %
31.03.2023 04:22 10,9 C 9,4 C 6,1 C 93 % 1002,9 hPa 0,0 l/m 0 min 2 min 0 W/m 19,3 km/h (3 Bft) 93,62 %
31.03.2023 04:24 10,9 C 9,4 C 6,1 C 93 % 1002,8 hPa 0,0 l/m 0 min 2 min 0 W/m 16,1 km/h (3 Bft) 93,62 %
31.03.2023 04:26 10,9 C 9,4 C 6,1 C 93 % 1002,7 hPa 0,0 l/m 0 min 2 min 0 W/m 29,0 km/h (5 Bft) 93,48 %
31.03.2023 04:28 10,9 C 9,4 C 6,1 C 93 % 1002,6 hPa 0,0 l/m 0 min 2 min 0 W/m 22,5 km/h (4 Bft) 97,87 %
31.03.2023 04:30 10,9 C 9,4 C 6,1 C 94 % 1002,6 hPa 0,0 l/m 0 min 2 min 0 W/m 12,9 km/h (3 Bft) 97,87 %
31.03.2023 04:32 10,9 C 9,4 C 6,1 C 94 % 1002,5 hPa 0,0 l/m 0 min 2 min 0 W/m 16,1 km/h (3 Bft) 94,44 %
31.03.2023 04:34 10,9 C 9,4 C 6,1 C 94 % 1002,4 hPa 0,0 l/m 0 min 2 min 0 W/m 19,3 km/h (3 Bft) 97,87 %
31.03.2023 04:36 10,9 C 9,4 C 6,1 C 94 % 1002,3 hPa 0,0 l/m 0 min 2 min 0 W/m 25,7 km/h (4 Bft) 100,00 %
31.03.2023 04:38 10,8 C 10,0 C 6,1 C 94 % 1002,3 hPa 0,0 l/m 0 min 2 min 0 W/m 22,5 km/h (4 Bft) 100,00 %
31.03.2023 04:40 10,9 C 10,0 C 6,1 C 94 % 1002,2 hPa 0,2 l/m 0 min 2 min 0 W/m 19,3 km/h (3 Bft) 97,87 %
31.03.2023 04:42 10,8 C 10,0 C 6,1 C 94 % 1002,1 hPa 0,0 l/m 0 min 2 min 0 W/m 16,1 km/h (3 Bft) 100,00 %
31.03.2023 04:44 10,8 C 10,0 C 6,1 C 94 % 1002,1 hPa 0,0 l/m 0 min 0 min 0 W/m 29,0 km/h (5 Bft) 97,87 %
31.03.2023 04:46 10,8 C 10,0 C 6,1 C 94 % 1001,9 hPa 0,0 l/m 0 min 0 min 0 W/m 12,9 km/h (3 Bft) 100,00 %
31.03.2023 04:48 10,8 C 10,0 C 6,1 C 94 % 1001,9 hPa 0,0 l/m 0 min 2 min 0 W/m 16,1 km/h (3 Bft) 100,00 %
31.03.2023 04:50 10,8 C 10,0 C 6,1 C 94 % 1001,9 hPa 0,0 l/m 0 min 2 min 0 W/m 16,1 km/h (3 Bft) 100,00 %
31.03.2023 04:52 10,8 C 10,0 C 6,1 C 94 % 1001,9 hPa 0,0 l/m 0 min 2 min 0 W/m 25,7 km/h (4 Bft) 100,00 %
31.03.2023 04:54 10,8 C 10,0 C 6,1 C 94 % 1001,8 hPa 0,0 l/m 0 min 2 min 0 W/m 25,7 km/h (4 Bft) 100,00 %
31.03.2023 04:56 10,8 C 10,0 C 6,1 C 94 % 1001,8 hPa 0,0 l/m 0 min 2 min 0 W/m 16,1 km/h (3 Bft) 100,00 %
31.03.2023 04:58 10,8 C 10,0 C 6,1 C 94 % 1001,7 hPa 0,0 l/m 0 min 0 min 0 W/m 22,5 km/h (4 Bft) 97,87 %
31.03.2023 05:00 10,8 C 10,0 C 6,1 C 94 % 1001,6 hPa 0,0 l/m 0 min 0 min 0 W/m 16,1 km/h (3 Bft) 97,83 %
31.03.2023 05:02 10,8 C 10,0 C 6,1 C 94 % 1001,5 hPa 0,0 l/m 0 min 0 min 0 W/m 22,5 km/h (4 Bft) 93,62 %
31.03.2023 05:04 10,8 C 10,0 C 6,1 C 94 % 1001,4 hPa 0,0 l/m 0 min 0 min 0 W/m 16,1 km/h (3 Bft) 97,87 %
31.03.2023 05:06 10,8 C 10,0 C 6,1 C 94 % 1001,4 hPa 0,0 l/m 0 min 0 min 0 W/m 19,3 km/h (3 Bft) 95,74 %
31.03.2023 05:08 10,8 C 10,0 C 6,1 C 94 % 1001,4 hPa 0,0 l/m 0 min 2 min 0 W/m 16,1 km/h (3 Bft) 97,87 %
31.03.2023 05:10 10,8 C 10,0 C 6,1 C 94 % 1001,3 hPa 0,0 l/m 0 min 0 min 0 W/m 19,3 km/h (3 Bft) 95,74 %
31.03.2023 05:12 10,8 C 10,0 C 6,1 C 94 % 1001,3 hPa 0,0 l/m 0 min 0 min 0 W/m 19,3 km/h (3 Bft) 97,87 %
31.03.2023 05:14 10,8 C 10,0 C 6,1 C 94 % 1001,3 hPa 0,0 l/m 0 min 0 min 0 W/m 12,9 km/h (3 Bft) 93,48 %
31.03.2023 05:16 10,8 C 10,0 C 6,1 C 94 % 1001,3 hPa 0,0 l/m 0 min 0 min 0 W/m 16,1 km/h (3 Bft) 97,96 %
31.03.2023 05:18 10,7 C 10,0 C 6,1 C 94 % 1001,1 hPa 0,0 l/m 0 min 0 min 0 W/m 9,7 km/h (2 Bft) 97,87 %
31.03.2023 05:20 10,7 C 10,0 C 6,1 C 94 % 1001,0 hPa 0,0 l/m 0 min 0 min 0 W/m 6,4 km/h (2 Bft) 95,74 %
31.03.2023 05:22 10,7 C 10,0 C 6,1 C 94 % 1001,0 hPa 0,0 l/m 0 min 0 min 0 W/m 12,9 km/h (3 Bft) 95,74 %
31.03.2023 05:24 10,7 C 10,0 C 6,1 C 94 % 1001,0 hPa 0,0 l/m 0 min 0 min 0 W/m 9,7 km/h (2 Bft) 97,87 %
31.03.2023 05:26 10,7 C 10,0 C 6,1 C 94 % 1000,9 hPa 0,0 l/m 0 min 2 min 0 W/m 12,9 km/h (3 Bft) 95,74 %
31.03.2023 05:28 10,7 C 10,0 C 6,1 C 94 % 1000,9 hPa 0,0 l/m 0 min 0 min 0 W/m 6,4 km/h (2 Bft) 95,65 %
31.03.2023 05:30 10,7 C 10,0 C 6,1 C 94 % 1000,8 hPa 0,0 l/m 0 min 0 min 0 W/m 9,7 km/h (2 Bft) 93,62 %
31.03.2023 05:32 10,7 C 10,0 C 6,1 C 94 % 1000,8 hPa 0,0 l/m 0 min 0 min 0 W/m 12,9 km/h (3 Bft) 93,62 %
31.03.2023 05:34 10,7 C 10,0 C 6,1 C 94 % 1000,9 hPa 0,0 l/m 0 min 0 min 0 W/m 12,9 km/h (3 Bft) 95,74 %
31.03.2023 05:36 10,7 C 10,0 C 6,1 C 94 % 1000,8 hPa 0,0 l/m 0 min 0 min 0 W/m 12,9 km/h (3 Bft) 95,74 %
31.03.2023 05:38 10,7 C 10,0 C 6,1 C 94 % 1000,8 hPa 0,0 l/m 0 min 0 min 0 W/m 12,9 km/h (3 Bft) 95,74 %
31.03.2023 05:40 10,7 C 10,0 C 6,1 C 94 % 1000,9 hPa 0,0 l/m 0 min 0 min 0 W/m 12,9 km/h (3 Bft) 95,65 %
31.03.2023 05:42 10,6 C 10,0 C 6,1 C 94 % 1000,8 hPa 0,0 l/m 0 min 0 min 0 W/m 6,4 km/h (2 Bft) 95,74 %
31.03.2023 05:44 10,6 C 10,0 C 6,1 C 94 % 1000,8 hPa 0,0 l/m 0 min 0 min 0 W/m 16,1 km/h (3 Bft) 96,00 %
31.03.2023 05:46 10,6 C 10,0 C 6,1 C 94 % 1000,8 hPa 0,0 l/m 0 min 0 min 0 W/m 6,4 km/h (2 Bft) 95,74 %
31.03.2023 05:48 10,6 C 10,0 C 6,1 C 94 % 1000,6 hPa 0,0 l/m 0 min 0 min 0 W/m 16,1 km/h (3 Bft) 93,62 %
31.03.2023 05:50 10,6 C 10,0 C 6,1 C 94 % 1000,4 hPa 0,0 l/m 0 min 0 min 0 W/m 6,4 km/h (2 Bft) 97,87 %
31.03.2023 05:52 10,6 C 10,0 C 6,1 C 94 % 1000,2 hPa 0,0 l/m 0 min 0 min 0 W/m 12,9 km/h (3 Bft) 95,74 %
31.03.2023 05:54 10,6 C 10,0 C 6,1 C 94 % 1000,2 hPa 0,0 l/m 0 min 0 min 0 W/m 12,9 km/h (3 Bft) 97,83 %
31.03.2023 05:56 10,6 C 10,0 C 6,1 C 94 % 1000,2 hPa 0,0 l/m 0 min 0 min 0 W/m 9,7 km/h (2 Bft) 97,87 %
31.03.2023 05:58 10,6 C 10,0 C 6,1 C 94 % 1000,2 hPa 0,0 l/m 0 min 0 min 0 W/m 12,9 km/h (3 Bft) 97,87 %
31.03.2023 06:00 10,6 C 10,0 C 6,1 C 94 % 1000,3 hPa 0,0 l/m 0 min 0 min 0 W/m 12,9 km/h (3 Bft) 100,00 %
31.03.2023 06:02 10,5 C 10,0 C 6,1 C 94 % 1000,3 hPa 0,0 l/m 0 min 0 min 0 W/m 12,9 km/h (3 Bft) 95,74 %
31.03.2023 06:04 10,5 C 10,0 C 6,1 C 94 % 1000,3 hPa 0,0 l/m 0 min 0 min 0 W/m 12,9 km/h (3 Bft) 100,00 %
31.03.2023 06:07 10,5 C 10,0 C 6,1 C 94 % 1000,3 hPa 0,0 l/m 0 min 0 min 0 W/m 12,9 km/h (3 Bft) 100,00 %
31.03.2023 06:08 10,5 C 10,0 C 6,1 C 94 % 1000,3 hPa 0,0 l/m 0 min 0 min 0 W/m 19,3 km/h (3 Bft) 100,00 %
31.03.2023 06:12 10,5 C 10,0 C 6,1 C 94 % 1000,1 hPa 0,0 l/m 0 min 0 min 0 W/m 12,9 km/h (3 Bft) 98,25 %
31.03.2023 06:14 10,5 C 10,0 C 6,1 C 93 % 1000,1 hPa 0,0 l/m 0 min 0 min 0 W/m 19,3 km/h (3 Bft) 100,00 %
31.03.2023 06:16 10,5 C 10,0 C 6,1 C 93 % 1000,0 hPa 0,0 l/m 0 min 0 min 0 W/m 12,9 km/h (3 Bft) 97,87 %
31.03.2023 06:18 10,5 C 10,0 C 6,1 C 93 % 1000,0 hPa 0,0 l/m 0 min 0 min 0 W/m 12,9 km/h (3 Bft) 100,00 %
31.03.2023 06:20 10,4 C 10,0 C 6,1 C 93 % 1000,0 hPa 0,0 l/m 0 min 0 min 0 W/m 12,9 km/h (3 Bft) 97,83 %
31.03.2023 06:22 10,4 C 10,0 C 6,1 C 93 % 999,9 hPa 0,0 l/m 0 min 0 min 0 W/m 12,9 km/h (3 Bft) 97,87 %
31.03.2023 06:24 10,4 C 10,0 C 6,1 C 93 % 999,7 hPa 0,0 l/m 0 min 2 min 0 W/m 12,9 km/h (3 Bft) 95,74 %
31.03.2023 06:26 10,4 C 10,0 C 5,6 C 93 % 999,6 hPa 0,0 l/m 0 min 2 min 0 W/m 12,9 km/h (3 Bft) 97,87 %
31.03.2023 06:28 10,4 C 10,0 C 5,6 C 93 % 999,6 hPa 0,0 l/m 0 min 0 min 0 W/m 12,9 km/h (3 Bft) 97,87 %
31.03.2023 06:30 10,4 C 10,0 C 5,6 C 93 % 999,5 hPa 0,0 l/m 0 min 2 min 0 W/m 12,9 km/h (3 Bft) 97,87 %
31.03.2023 06:32 10,4 C 10,0 C 5,6 C 93 % 999,5 hPa 0,0 l/m 0 min 2 min 0 W/m 12,9 km/h (3 Bft) 97,87 %
31.03.2023 06:34 10,4 C 10,0 C 5,6 C 93 % 999,4 hPa 0,0 l/m 0 min 2 min 0 W/m 12,9 km/h (3 Bft) 97,83 %
31.03.2023 06:36 10,4 C 10,0 C 5,6 C 93 % 999,4 hPa 0,0 l/m 0 min 0 min 0 W/m 16,1 km/h (3 Bft) 95,74 %
31.03.2023 06:38 10,4 C 10,0 C 5,6 C 93 % 999,3 hPa 0,0 l/m 0 min 0 min 0 W/m 16,1 km/h (3 Bft) 97,87 %
31.03.2023 06:40 10,4 C 10,0 C 5,6 C 93 % 999,3 hPa 0,0 l/m 0 min 0 min 0 W/m 9,7 km/h (2 Bft) 95,74 %
31.03.2023 06:42 10,4 C 10,0 C 5,6 C 93 % 999,2 hPa 0,0 l/m 0 min 0 min 0 W/m 12,9 km/h (3 Bft) 97,87 %
31.03.2023 06:44 10,4 C 9,4 C 5,6 C 93 % 999,1 hPa 0,0 l/m 0 min 0 min 0 W/m 9,7 km/h (2 Bft) 97,87 %
31.03.2023 06:46 10,4 C 9,4 C 5,6 C 93 % 999,1 hPa 0,0 l/m 0 min 0 min 0 W/m 6,4 km/h (2 Bft) 97,87 %
31.03.2023 06:48 10,4 C 9,4 C 5,6 C 93 % 999,1 hPa 0,0 l/m 0 min 0 min 0 W/m 12,9 km/h (3 Bft) 97,83 %
31.03.2023 06:50 10,4 C 9,4 C 5,6 C 93 % 999,0 hPa 0,0 l/m 0 min 0 min 0 W/m 12,9 km/h (3 Bft) 97,87 %
31.03.2023 06:52 10,4 C 9,4 C 5,6 C 93 % 998,8 hPa 0,0 l/m 0 min 0 min 0 W/m 16,1 km/h (3 Bft) 97,87 %
31.03.2023 06:54 10,4 C 9,4 C 5,6 C 93 % 998,7 hPa 0,0 l/m 0 min 0 min 0 W/m 12,9 km/h (3 Bft) 95,74 %
31.03.2023 06:56 10,3 C 9,4 C 5,6 C 93 % 998,7 hPa 0,0 l/m 0 min 0 min 0 W/m 12,9 km/h (3 Bft) 97,87 %
31.03.2023 06:58 10,3 C 9,4 C 5,6 C 93 % 998,7 hPa 0,0 l/m 0 min 0 min 0 W/m 12,9 km/h (3 Bft) 95,74 %
31.03.2023 07:00 10,3 C 9,4 C 5,6 C 93 % 998,6 hPa 0,0 l/m 0 min 0 min 0 W/m 12,9 km/h (3 Bft) 97,87 %
31.03.2023 07:02 10,3 C 9,4 C 5,6 C 93 % 998,6 hPa 0,0 l/m 0 min 0 min 0 W/m 16,1 km/h (3 Bft) 97,83 %
31.03.2023 07:04 10,3 C 9,4 C 5,6 C 93 % 998,5 hPa 0,0 l/m 0 min 0 min 0 W/m 16,1 km/h (3 Bft) 100,00 %
31.03.2023 07:06 10,2 C 9,4 C 5,6 C 93 % 998,5 hPa 0,0 l/m 0 min 0 min 0 W/m 16,1 km/h (3 Bft) 98,31 %
31.03.2023 07:08 10,2 C 9,4 C 5,6 C 93 % 998,5 hPa 0,0 l/m 0 min 0 min 0 W/m 12,9 km/h (3 Bft) 100,00 %
31.03.2023 07:10 10,2 C 9,4 C 5,6 C 93 % 998,5 hPa 0,0 l/m 0 min 0 min 0 W/m 12,9 km/h (3 Bft) 100,00 %
31.03.2023 07:12 10,2 C 9,4 C 5,6 C 93 % 998,5 hPa 0,0 l/m 0 min 2 min 0 W/m 16,1 km/h (3 Bft) 100,00 %
31.03.2023 07:14 10,1 C 9,4 C 5,6 C 93 % 998,4 hPa 0,0 l/m 0 min 0 min 0 W/m 16,1 km/h (3 Bft) 100,00 %
31.03.2023 07:16 10,1 C 9,4 C 5,6 C 93 % 998,4 hPa 0,0 l/m 0 min 0 min 0 W/m 12,9 km/h (3 Bft) 97,83 %
31.03.2023 07:18 10,1 C 9,4 C 5,6 C 93 % 998,3 hPa 0,0 l/m 0 min 0 min 0 W/m 12,9 km/h (3 Bft) 97,87 %
31.03.2023 07:20 10,1 C 9,4 C 5,6 C 93 % 998,3 hPa 0,0 l/m 0 min 0 min 0 W/m 12,9 km/h (3 Bft) 97,87 %
31.03.2023 07:22 10,1 C 9,4 C 5,6 C 93 % 998,3 hPa 0,0 l/m 0 min 0 min 0 W/m 12,9 km/h (3 Bft) 93,75 %
31.03.2023 07:24 10,1 C 9,4 C 5,6 C 93 % 998,2 hPa 0,0 l/m 0 min 0 min 0 W/m 16,1 km/h (3 Bft) 97,87 %
31.03.2023 07:26 10,1 C 9,4 C 5,6 C 93 % 998,2 hPa 0,0 l/m 0 min 0 min 0 W/m 9,7 km/h (2 Bft) 97,87 %
31.03.2023 07:28 10,1 C 9,4 C 5,6 C 93 % 998,2 hPa 0,0 l/m 0 min 0 min 0 W/m 19,3 km/h (3 Bft) 97,87 %
31.03.2023 07:30 10,1 C 9,4 C 5,6 C 93 % 998,1 hPa 0,0 l/m 0 min 0 min 0 W/m 16,1 km/h (3 Bft) 95,74 %
31.03.2023 07:32 10,1 C 9,4 C 5,6 C 93 % 998,1 hPa 0,0 l/m 0 min 0 min 0 W/m 12,9 km/h (3 Bft) 97,83 %
31.03.2023 07:34 10,1 C 9,4 C 5,6 C 93 % 998,1 hPa 0,0 l/m 0 min 0 min 0 W/m 12,9 km/h (3 Bft) 97,87 %
31.03.2023 07:36 10,1 C 9,4 C 5,6 C 93 % 998,1 hPa 0,0 l/m 0 min 2 min 0 W/m 16,1 km/h (3 Bft) 95,74 %
31.03.2023 07:38 10,1 C 9,4 C 5,6 C 93 % 998,0 hPa 0,2 l/m 0 min 2 min 0 W/m 16,1 km/h (3 Bft) 95,74 %
31.03.2023 07:40 10,1 C 9,4 C 5,6 C 93 % 998,0 hPa 0,0 l/m 0 min 2 min 0 W/m 19,3 km/h (3 Bft) 97,87 %
31.03.2023 07:42 10,1 C 9,4 C 5,6 C 93 % 997,9 hPa 0,0 l/m 0 min 2 min 2 W/m 19,3 km/h (3 Bft) 97,87 %
31.03.2023 07:44 10,2 C 9,4 C 5,6 C 93 % 997,9 hPa 0,0 l/m 0 min 2 min 6 W/m 12,9 km/h (3 Bft) 97,87 %
31.03.2023 07:46 10,2 C 9,4 C 5,6 C 93 % 997,9 hPa 0,0 l/m 0 min 0 min 4 W/m 12,9 km/h (3 Bft) 97,83 %
31.03.2023 07:48 10,2 C 9,4 C 5,6 C 92 % 997,8 hPa 0,0 l/m 0 min 0 min 4 W/m 16,1 km/h (3 Bft) 100,00 %
31.03.2023 07:50 10,2 C 9,4 C 5,6 C 92 % 997,8 hPa 0,0 l/m 0 min 0 min 5 W/m 29,0 km/h (5 Bft) 100,00 %
31.03.2023 07:52 10,2 C 9,4 C 5,6 C 92 % 997,8 hPa 0,0 l/m 0 min 0 min 6 W/m 16,1 km/h (3 Bft) 97,87 %
31.03.2023 07:54 10,2 C 9,4 C 5,6 C 92 % 997,7 hPa 0,0 l/m 0 min 2 min 5 W/m 12,9 km/h (3 Bft) 97,87 %
31.03.2023 07:56 10,2 C 9,4 C 5,6 C 92 % 997,8 hPa 0,0 l/m 0 min 2 min 5 W/m 9,7 km/h (2 Bft) 100,00 %
31.03.2023 07:58 10,2 C 9,4 C 5,6 C 92 % 997,8 hPa 0,0 l/m 0 min 2 min 6 W/m 12,9 km/h (3 Bft) 100,00 %
31.03.2023 08:00 10,2 C 9,4 C 5,6 C 92 % 997,7 hPa 0,0 l/m 0 min 2 min 7 W/m 16,1 km/h (3 Bft) 100,00 %
31.03.2023 08:02 10,2 C 9,4 C 5,6 C 92 % 997,7 hPa 0,0 l/m 0 min 2 min 8 W/m 12,9 km/h (3 Bft) 93,62 %
31.03.2023 08:04 10,2 C 9,4 C 5,6 C 92 % 997,6 hPa 0,0 l/m 0 min 0 min 10 W/m 6,4 km/h (2 Bft) 100,00 %
31.03.2023 08:06 10,2 C 9,4 C 5,6 C 92 % 997,6 hPa 0,0 l/m 0 min 2 min 10 W/m 12,9 km/h (3 Bft) 100,00 %
31.03.2023 08:08 10,2 C 9,4 C 5,6 C 92 % 997,6 hPa 0,0 l/m 0 min 2 min 12 W/m 3,2 km/h (1 Bft) 95,74 %
31.03.2023 08:10 10,2 C 9,4 C 5,6 C 92 % 997,5 hPa 0,0 l/m 0 min 0 min 12 W/m 16,1 km/h (3 Bft) 97,87 %
31.03.2023 08:12 10,2 C 9,4 C 5,6 C 92 % 997,5 hPa 0,2 l/m 0 min 2 min 16 W/m 12,9 km/h (3 Bft) 97,83 %
31.03.2023 08:14 10,2 C 9,4 C 5,6 C 92 % 997,5 hPa 0,0 l/m 0 min 2 min 13 W/m 12,9 km/h (3 Bft) 95,74 %
31.03.2023 08:16 10,2 C 9,4 C 5,6 C 92 % 997,5 hPa 0,0 l/m 0 min 2 min 11 W/m 9,7 km/h (2 Bft) 97,87 %
31.03.2023 08:18 10,3 C 9,4 C 5,6 C 92 % 997,5 hPa 0,0 l/m 0 min 2 min 12 W/m 19,3 km/h (3 Bft) 97,87 %
31.03.2023 08:20 10,3 C 9,4 C 5,6 C 92 % 997,4 hPa 0,0 l/m 0 min 2 min 10 W/m 9,7 km/h (2 Bft) 97,87 %
31.03.2023 08:22 10,3 C 9,4 C 5,6 C 92 % 997,5 hPa 0,0 l/m 0 min 2 min 14 W/m 12,9 km/h (3 Bft) 95,74 %
31.03.2023 08:24 10,3 C 9,4 C 5,6 C 92 % 997,5 hPa 0,0 l/m 0 min 2 min 16 W/m 22,5 km/h (4 Bft) 95,74 %
31.03.2023 08:26 10,3 C 9,4 C 5,6 C 92 % 997,5 hPa 0,0 l/m 0 min 2 min 16 W/m 16,1 km/h (3 Bft) 95,65 %
31.03.2023 08:28 10,3 C 9,4 C 5,6 C 92 % 997,4 hPa 0,2 l/m 0 min 2 min 18 W/m 19,3 km/h (3 Bft) 97,87 %
31.03.2023 08:30 10,3 C 9,4 C 5,6 C 92 % 997,5 hPa 0,0 l/m 0 min 2 min 21 W/m 12,9 km/h (3 Bft) 95,74 %
31.03.2023 08:32 10,3 C 9,4 C 5,6 C 92 % 997,5 hPa 0,0 l/m 0 min 2 min 24 W/m 16,1 km/h (3 Bft) 97,87 %
31.03.2023 08:34 10,4 C 10,0 C 5,6 C 92 % 997,4 hPa 0,0 l/m 0 min 2 min 24 W/m 19,3 km/h (3 Bft) 97,87 %
31.03.2023 08:36 10,4 C 9,4 C 5,6 C 92 % 997,4 hPa 0,0 l/m 0 min 2 min 20 W/m 22,5 km/h (4 Bft) 97,87 %
31.03.2023 08:38 10,4 C 9,4 C 5,6 C 92 % 997,4 hPa 0,0 l/m 0 min 2 min 19 W/m 19,3 km/h (3 Bft) 97,87 %
31.03.2023 08:40 10,4 C 9,4 C 5,6 C 92 % 997,4 hPa 0,0 l/m 0 min 2 min 19 W/m 22,5 km/h (4 Bft) 95,65 %
31.03.2023 08:42 10,4 C 9,4 C 5,6 C 92 % 997,4 hPa 0,0 l/m 0 min 2 min 23 W/m 12,9 km/h (3 Bft) 95,74 %
31.03.2023 08:44 10,4 C 9,4 C 5,6 C 92 % 997,4 hPa 0,0 l/m 0 min 2 min 24 W/m 12,9 km/h (3 Bft) 93,62 %
31.03.2023 08:46 10,4 C 9,4 C 5,6 C 92 % 997,4 hPa 0,0 l/m 0 min 2 min 33 W/m 9,7 km/h (2 Bft) 95,74 %
31.03.2023 08:48 10,4 C 9,4 C 5,6 C 92 % 997,4 hPa 0,0 l/m 0 min 2 min 47 W/m 16,1 km/h (3 Bft) 89,36 %
31.03.2023 08:50 10,4 C 10,0 C 5,6 C 92 % 997,5 hPa 0,0 l/m 0 min 2 min 55 W/m 16,1 km/h (3 Bft) 95,74 %
31.03.2023 08:52 10,4 C 10,0 C 5,6 C 92 % 997,4 hPa 0,0 l/m 0 min 2 min 48 W/m 9,7 km/h (2 Bft) 93,48 %
31.03.2023 08:54 10,5 C 9,4 C 5,6 C 92 % 997,3 hPa 0,2 l/m 0 min 2 min 31 W/m 19,3 km/h (3 Bft) 91,49 %
31.03.2023 08:56 10,5 C 9,4 C 5,6 C 92 % 997,3 hPa 0,0 l/m 0 min 2 min 25 W/m 12,9 km/h (3 Bft) 95,74 %
31.03.2023 08:58 10,5 C 9,4 C 5,6 C 92 % 997,2 hPa 0,0 l/m 0 min 0 min 22 W/m 6,4 km/h (2 Bft) 93,62 %
31.03.2023 09:00 10,5 C 9,4 C 5,6 C 92 % 997,2 hPa 0,0 l/m 0 min 0 min 21 W/m 9,7 km/h (2 Bft) 93,62 %
31.03.2023 09:02 10,4 C 9,4 C 5,6 C 92 % 997,1 hPa 0,0 l/m 0 min 0 min 24 W/m 12,9 km/h (3 Bft) 97,87 %
31.03.2023 09:04 10,4 C 9,4 C 5,6 C 92 % 997,1 hPa 0,2 l/m 0 min 0 min 25 W/m 12,9 km/h (3 Bft) 97,87 %
31.03.2023 09:06 10,4 C 9,4 C 5,6 C 92 % 997,1 hPa 0,0 l/m 0 min 0 min 26 W/m 9,7 km/h (2 Bft) 95,65 %
31.03.2023 09:08 10,4 C 9,4 C 5,6 C 92 % 997,1 hPa 0,0 l/m 0 min 0 min 29 W/m 12,9 km/h (3 Bft) 95,74 %
31.03.2023 09:10 10,4 C 9,4 C 5,6 C 92 % 997,1 hPa 0,0 l/m 0 min 0 min 33 W/m 6,4 km/h (2 Bft) 93,62 %
31.03.2023 09:12 10,4 C 9,4 C 5,6 C 92 % 997,0 hPa 0,0 l/m 0 min 0 min 33 W/m 6,4 km/h (2 Bft) 95,74 %
31.03.2023 09:14 10,4 C 9,4 C 5,6 C 93 % 997,0 hPa 0,0 l/m 0 min 0 min 36 W/m 9,7 km/h (2 Bft) 93,62 %
31.03.2023 09:16 10,4 C 9,4 C 5,6 C 93 % 997,0 hPa 0,0 l/m 0 min 0 min 44 W/m 6,4 km/h (2 Bft) 95,74 %
31.03.2023 09:18 10,4 C 10,0 C 5,6 C 93 % 997,0 hPa 0,0 l/m 0 min 0 min 60 W/m 16,1 km/h (3 Bft) 91,49 %
31.03.2023 09:20 10,4 C 10,0 C 6,1 C 93 % 997,0 hPa 0,0 l/m 0 min 0 min 67 W/m 12,9 km/h (3 Bft) 93,48 %
31.03.2023 09:22 10,4 C 10,0 C 6,1 C 93 % 997,0 hPa 0,0 l/m 0 min 0 min 78 W/m 12,9 km/h (3 Bft) 95,74 %
31.03.2023 09:24 10,4 C 10,0 C 6,1 C 93 % 997,0 hPa 0,0 l/m 0 min 0 min 73 W/m 9,7 km/h (2 Bft) 97,87 %
31.03.2023 09:26 10,4 C 10,0 C 6,1 C 93 % 997,0 hPa 0,0 l/m 0 min 0 min 87 W/m 6,4 km/h (2 Bft) 97,87 %
31.03.2023 09:28 10,5 C 10,6 C 6,1 C 93 % 996,9 hPa 0,0 l/m 0 min 0 min 109 W/m 12,9 km/h (3 Bft) 97,87 %
31.03.2023 09:30 10,5 C 10,6 C 6,1 C 93 % 996,9 hPa 0,0 l/m 0 min 0 min 97 W/m 6,4 km/h (2 Bft) 93,62 %
31.03.2023 09:32 10,6 C 10,6 C 6,1 C 93 % 997,0 hPa 0,0 l/m 0 min 0 min 86 W/m 9,7 km/h (2 Bft) 95,74 %
31.03.2023 09:34 10,6 C 10,6 C 6,1 C 93 % 996,9 hPa 0,0 l/m 0 min 0 min 69 W/m 6,4 km/h (2 Bft) 97,83 %
31.03.2023 09:36 10,6 C 10,6 C 6,1 C 93 % 997,0 hPa 0,0 l/m 0 min 0 min 55 W/m 9,7 km/h (2 Bft) 95,74 %
31.03.2023 09:38 10,6 C 10,6 C 6,1 C 93 % 996,9 hPa 0,0 l/m 0 min 2 min 47 W/m 12,9 km/h (3 Bft) 95,74 %
31.03.2023 09:40 10,6 C 10,6 C 6,1 C 93 % 996,9 hPa 0,0 l/m 0 min 0 min 41 W/m 9,7 km/h (2 Bft) 100,00 %
31.03.2023 09:42 10,6 C 10,6 C 6,1 C 93 % 996,9 hPa 0,0 l/m 0 min 2 min 34 W/m 12,9 km/h (3 Bft) 97,87 %
31.03.2023 09:44 10,6 C 10,6 C 6,1 C 93 % 996,9 hPa 0,0 l/m 0 min 0 min 30 W/m 16,1 km/h (3 Bft) 100,00 %
31.03.2023 09:46 10,7 C 10,6 C 6,1 C 93 % 996,9 hPa 0,0 l/m 0 min 0 min 23 W/m 12,9 km/h (3 Bft) 100,00 %
31.03.2023 09:48 10,7 C 10,6 C 6,1 C 93 % 996,9 hPa 0,0 l/m 0 min 0 min 23 W/m 16,1 km/h (3 Bft) 97,67 %
31.03.2023 09:50 10,7 C 10,6 C 6,1 C 93 % 996,8 hPa 0,0 l/m 0 min 0 min 31 W/m 6,4 km/h (2 Bft) 100,00 %
31.03.2023 09:52 10,7 C 10,6 C 6,1 C 93 % 996,9 hPa 0,0 l/m 0 min 0 min 33 W/m 16,1 km/h (3 Bft) 100,00 %
31.03.2023 09:54 10,7 C 10,6 C 6,1 C 93 % 996,9 hPa 0,0 l/m 0 min 0 min 34 W/m 12,9 km/h (3 Bft) 97,87 %
31.03.2023 09:56 10,8 C 10,6 C 6,1 C 92 % 996,8 hPa 0,0 l/m 0 min 0 min 41 W/m 6,4 km/h (2 Bft) 100,00 %
31.03.2023 09:58 10,8 C 10,6 C 6,1 C 92 % 996,8 hPa 0,0 l/m 0 min 0 min 38 W/m 6,4 km/h (2 Bft) 100,00 %
31.03.2023 10:00 10,8 C 10,6 C 6,1 C 93 % 996,8 hPa 0,0 l/m 0 min 0 min 39 W/m 6,4 km/h (2 Bft) 97,83 %
31.03.2023 10:02 10,9 C 10,6 C 6,1 C 92 % 996,8 hPa 0,0 l/m 0 min 0 min 49 W/m 16,1 km/h (3 Bft) 100,00 %
31.03.2023 10:04 10,9 C 10,6 C 6,1 C 92 % 996,8 hPa 0,0 l/m 0 min 0 min 54 W/m 12,9 km/h (3 Bft) 100,00 %
31.03.2023 10:06 10,9 C 11,1 C 6,1 C 92 % 996,7 hPa 0,0 l/m 0 min 0 min 67 W/m 12,9 km/h (3 Bft) 98,31 %
31.03.2023 10:08 11,1 C 11,1 C 6,1 C 92 % 996,8 hPa 0,0 l/m 0 min 0 min 64 W/m 25,7 km/h (4 Bft) 100,00 %
31.03.2023 10:10 11,1 C 11,1 C 6,1 C 92 % 996,7 hPa 0,0 l/m 0 min 0 min 94 W/m 25,7 km/h (4 Bft) 100,00 %
31.03.2023 10:12 11,3 C 11,7 C 6,7 C 91 % 996,7 hPa 0,0 l/m 0 min 0 min 128 W/m 22,5 km/h (4 Bft) 97,83 %
31.03.2023 10:14 11,4 C 11,7 C 6,7 C 91 % 996,7 hPa 0,0 l/m 0 min 0 min 132 W/m 22,5 km/h (4 Bft) 100,00 %
31.03.2023 10:16 11,5 C 11,7 C 6,7 C 90 % 996,6 hPa 0,0 l/m 0 min 0 min 151 W/m 29,0 km/h (5 Bft) 97,87 %
31.03.2023 10:18 11,7 C 12,2 C 6,7 C 90 % 996,6 hPa 0,0 l/m 0 min 0 min 157 W/m 25,7 km/h (4 Bft) 97,87 %
31.03.2023 10:20 11,8 C 12,2 C 6,7 C 89 % 996,6 hPa 0,0 l/m 0 min 0 min 155 W/m 25,7 km/h (4 Bft) 100,00 %
31.03.2023 10:22 11,9 C 12,2 C 6,7 C 88 % 996,5 hPa 0,0 l/m 0 min 0 min 155 W/m 32,2 km/h (5 Bft) 100,00 %
31.03.2023 10:24 12,0 C 12,2 C 6,7 C 88 % 996,6 hPa 0,0 l/m 0 min 0 min 148 W/m 22,5 km/h (4 Bft) 93,62 %
31.03.2023 10:26 12,1 C 12,2 C 6,7 C 87 % 996,5 hPa 0,0 l/m 0 min 0 min 143 W/m 22,5 km/h (4 Bft) 100,00 %
31.03.2023 10:28 12,1 C 12,2 C 6,7 C 87 % 996,5 hPa 0,0 l/m 0 min 0 min 157 W/m 12,9 km/h (3 Bft) 100,00 %
31.03.2023 10:30 12,2 C 12,2 C 6,7 C 87 % 996,5 hPa 0,0 l/m 0 min 0 min 178 W/m 29,0 km/h (5 Bft) 97,87 %
31.03.2023 10:32 12,3 C 12,2 C 6,7 C 86 % 996,5 hPa 0,0 l/m 0 min 0 min 202 W/m 25,7 km/h (4 Bft) 97,87 %
31.03.2023 10:34 12,3 C 12,2 C 6,7 C 85 % 996,4 hPa 0,0 l/m 0 min 0 min 226 W/m 32,2 km/h (5 Bft) 100,00 %
31.03.2023 10:36 12,4 C 12,8 C 6,7 C 85 % 996,4 hPa 0,0 l/m 2 min 0 min 243 W/m 25,7 km/h (4 Bft) 100,00 %
31.03.2023 10:38 12,5 C 12,8 C 7,2 C 85 % 996,4 hPa 0,0 l/m 2 min 0 min 260 W/m 19,3 km/h (3 Bft) 100,00 %
31.03.2023 10:40 12,6 C 12,8 C 7,2 C 85 % 996,4 hPa 0,0 l/m 2 min 0 min 266 W/m 32,2 km/h (5 Bft) 100,00 %
31.03.2023 10:42 12,6 C 13,3 C 7,2 C 85 % 996,4 hPa 0,0 l/m 2 min 0 min 266 W/m 29,0 km/h (5 Bft) 100,00 %
31.03.2023 10:44 12,7 C 13,3 C 7,2 C 85 % 996,5 hPa 0,0 l/m 2 min 0 min 262 W/m 29,0 km/h (5 Bft) 100,00 %
31.03.2023 10:46 12,8 C 13,3 C 7,2 C 84 % 996,4 hPa 0,0 l/m 2 min 0 min 254 W/m 32,2 km/h (5 Bft) 100,00 %
31.03.2023 10:48 12,8 C 13,3 C 7,2 C 84 % 996,4 hPa 0,0 l/m 0 min 0 min 210 W/m 29,0 km/h (5 Bft) 100,00 %
31.03.2023 10:50 12,9 C 13,3 C 7,2 C 84 % 996,4 hPa 0,0 l/m 0 min 0 min 177 W/m 25,7 km/h (4 Bft) 100,00 %
31.03.2023 10:52 12,9 C 12,8 C 7,2 C 83 % 996,3 hPa 0,0 l/m 0 min 0 min 144 W/m 25,7 km/h (4 Bft) 97,83 %
31.03.2023 10:54 12,9 C 12,8 C 7,2 C 83 % 996,3 hPa 0,0 l/m 0 min 0 min 119 W/m 29,0 km/h (5 Bft) 100,00 %
31.03.2023 10:56 13,0 C 12,8 C 7,2 C 83 % 996,4 hPa 0,0 l/m 0 min 0 min 117 W/m 29,0 km/h (5 Bft) 100,00 %
31.03.2023 10:58 12,9 C 12,8 C 7,2 C 83 % 996,3 hPa 0,0 l/m 0 min 0 min 121 W/m 22,5 km/h (4 Bft) 97,87 %
31.03.2023 11:00 13,0 C 12,8 C 7,2 C 83 % 996,3 hPa 0,0 l/m 0 min 0 min 123 W/m 25,7 km/h (4 Bft) 97,87 %
31.03.2023 11:02 12,9 C 12,8 C 6,7 C 82 % 996,3 hPa 0,0 l/m 0 min 0 min 126 W/m 22,5 km/h (4 Bft) 95,74 %
31.03.2023 11:04 12,9 C 12,8 C 7,2 C 82 % 996,3 hPa 0,0 l/m 0 min 0 min 132 W/m 29,0 km/h (5 Bft) 97,87 %
31.03.2023 11:06 12,9 C 12,8 C 7,2 C 82 % 996,3 hPa 0,0 l/m 0 min 0 min 134 W/m 25,7 km/h (4 Bft) 91,38 %
31.03.2023 11:08 12,9 C 12,8 C 7,2 C 82 % 996,3 hPa 0,0 l/m 0 min 0 min 129 W/m 25,7 km/h (4 Bft) 100,00 %
31.03.2023 11:10 12,9 C 12,8 C 7,2 C 82 % 996,4 hPa 0,0 l/m 0 min 0 min 119 W/m 38,6 km/h (5 Bft) 95,74 %
31.03.2023 11:12 12,9 C 12,8 C 7,2 C 82 % 996,3 hPa 0,0 l/m 0 min 0 min 119 W/m 25,7 km/h (4 Bft) 95,74 %
31.03.2023 11:14 12,9 C 12,8 C 7,8 C 82 % 996,3 hPa 0,0 l/m 0 min 0 min 132 W/m 32,2 km/h (5 Bft) 93,62 %
31.03.2023 11:16 12,9 C 12,8 C 7,8 C 81 % 996,2 hPa 0,0 l/m 0 min 0 min 133 W/m 25,7 km/h (4 Bft) 95,74 %
31.03.2023 11:18 13,0 C 12,8 C 7,8 C 82 % 996,2 hPa 0,0 l/m 0 min 0 min 141 W/m 32,2 km/h (5 Bft) 93,62 %
31.03.2023 11:20 13,0 C 12,8 C 7,8 C 81 % 996,2 hPa 0,0 l/m 0 min 0 min 167 W/m 25,7 km/h (4 Bft) 91,30 %
31.03.2023 11:22 13,1 C 12,8 C 8,3 C 82 % 996,1 hPa 0,0 l/m 0 min 0 min 190 W/m 25,7 km/h (4 Bft) 91,49 %
31.03.2023 11:24 13,1 C 13,3 C 8,3 C 81 % 996,1 hPa 0,0 l/m 0 min 0 min 194 W/m 35,4 km/h (5 Bft) 91,49 %
31.03.2023 11:26 13,1 C 13,3 C 8,3 C 81 % 996,0 hPa 0,0 l/m 0 min 0 min 209 W/m 51,5 km/h (7 Bft) 93,62 %
31.03.2023 11:28 13,2 C 13,9 C 8,9 C 81 % 996,0 hPa 0,0 l/m 0 min 0 min 259 W/m 22,5 km/h (4 Bft) 91,49 %
31.03.2023 11:30 13,3 C 13,9 C 8,9 C 81 % 996,0 hPa 0,0 l/m 2 min 0 min 302 W/m 22,5 km/h (4 Bft) 93,62 %
31.03.2023 11:32 13,3 C 14,4 C 9,4 C 81 % 995,9 hPa 0,0 l/m 2 min 0 min 315 W/m 41,8 km/h (6 Bft) 93,48 %
31.03.2023 11:34 13,5 C 15,0 C 10,0 C 80 % 996,0 hPa 0,0 l/m 2 min 0 min 367 W/m 29,0 km/h (5 Bft) 95,74 %
31.03.2023 11:36 13,6 C 15,0 C 10,6 C 79 % 995,9 hPa 0,0 l/m 2 min 0 min 394 W/m 41,8 km/h (6 Bft) 91,49 %
31.03.2023 11:38 13,7 C 15,0 C 10,6 C 79 % 995,8 hPa 0,0 l/m 2 min 0 min 386 W/m 38,6 km/h (5 Bft) 95,74 %
31.03.2023 11:40 13,8 C 15,0 C 10,6 C 79 % 995,8 hPa 0,0 l/m 2 min 0 min 295 W/m 25,7 km/h (4 Bft) 95,74 %
31.03.2023 11:42 13,9 C 14,4 C 10,6 C 78 % 995,8 hPa 0,0 l/m 0 min 0 min 270 W/m 35,4 km/h (5 Bft) 95,74 %
31.03.2023 11:44 13,9 C 14,4 C 10,6 C 78 % 995,7 hPa 0,0 l/m 0 min 0 min 226 W/m 35,4 km/h (5 Bft) 95,74 %
31.03.2023 11:46 13,9 C 13,9 C 10,0 C 77 % 995,7 hPa 0,0 l/m 0 min 0 min 165 W/m 38,6 km/h (5 Bft) 95,65 %
31.03.2023 11:48 13,9 C 13,3 C 10,0 C 78 % 995,7 hPa 0,0 l/m 0 min 0 min 135 W/m 38,6 km/h (5 Bft) 91,49 %
31.03.2023 11:50 13,9 C 12,8 C 8,9 C 79 % 995,7 hPa 0,0 l/m 0 min 2 min 71 W/m 19,3 km/h (3 Bft) 95,74 %
31.03.2023 11:52 13,8 C 12,8 C 8,3 C 80 % 995,9 hPa 0,0 l/m 0 min 2 min 44 W/m 25,7 km/h (4 Bft) 95,74 %
31.03.2023 11:54 13,6 C 11,7 C 7,2 C 81 % 996,0 hPa 0,2 l/m 0 min 2 min 51 W/m 38,6 km/h (5 Bft) 93,62 %
31.03.2023 11:56 13,2 C 11,1 C 6,7 C 83 % 996,0 hPa 0,2 l/m 0 min 2 min 107 W/m 38,6 km/h (5 Bft) 95,74 %
31.03.2023 11:58 12,9 C 11,1 C 6,7 C 84 % 995,9 hPa 0,0 l/m 0 min 2 min 174 W/m 19,3 km/h (3 Bft) 95,74 %
31.03.2023 12:00 12,7 C 11,1 C 7,2 C 85 % 995,9 hPa 0,0 l/m 0 min 0 min 252 W/m 16,1 km/h (3 Bft) 93,48 %
31.03.2023 12:02 12,6 C 11,7 C 7,2 C 86 % 995,9 hPa 0,0 l/m 0 min 0 min 277 W/m 19,3 km/h (3 Bft) 95,74 %
31.03.2023 12:04 12,5 C 11,7 C 7,2 C 86 % 995,8 hPa 0,0 l/m 0 min 0 min 257 W/m 22,5 km/h (4 Bft) 100,00 %
31.03.2023 12:07 12,5 C 11,7 C 7,2 C 87 % 995,7 hPa 0,0 l/m 0 min 0 min 233 W/m 25,7 km/h (4 Bft) 98,61 %
31.03.2023 12:08 12,4 C 12,2 C 7,2 C 86 % 995,7 hPa 0,0 l/m 0 min 0 min 224 W/m 19,3 km/h (3 Bft) 100,00 %
31.03.2023 12:12 12,6 C 12,8 C 7,2 C 86 % 995,7 hPa 0,0 l/m 0 min 0 min 233 W/m 12,9 km/h (3 Bft) 96,30 %
31.03.2023 12:14 12,6 C 12,8 C 7,2 C 87 % 995,7 hPa 0,0 l/m 0 min 0 min 253 W/m 22,5 km/h (4 Bft) 100,00 %
31.03.2023 12:16 12,7 C 13,3 C 7,2 C 87 % 995,7 hPa 0,0 l/m 0 min 0 min 276 W/m 19,3 km/h (3 Bft) 97,87 %
31.03.2023 12:18 12,7 C 13,3 C 7,2 C 86 % 995,6 hPa 0,0 l/m 0 min 0 min 277 W/m 19,3 km/h (3 Bft) 100,00 %
31.03.2023 12:20 12,8 C 13,3 C 7,8 C 86 % 995,6 hPa 0,0 l/m 0 min 0 min 282 W/m 12,9 km/h (3 Bft) 97,87 %
31.03.2023 12:22 12,9 C 13,9 C 7,8 C 86 % 995,5 hPa 0,0 l/m 2 min 0 min 321 W/m 12,9 km/h (3 Bft) 100,00 %
31.03.2023 12:24 13,0 C 13,9 C 7,8 C 86 % 995,5 hPa 0,0 l/m 0 min 0 min 310 W/m 19,3 km/h (3 Bft) 97,87 %
31.03.2023 12:26 13,1 C 13,9 C 7,8 C 85 % 995,5 hPa 0,0 l/m 0 min 0 min 277 W/m 29,0 km/h (5 Bft) 100,00 %
31.03.2023 12:28 13,1 C 13,3 C 7,8 C 83 % 995,4 hPa 0,0 l/m 0 min 0 min 212 W/m 25,7 km/h (4 Bft) 97,83 %
31.03.2023 12:30 13,2 C 13,3 C 7,2 C 83 % 995,5 hPa 0,0 l/m 0 min 0 min 167 W/m 29,0 km/h (5 Bft) 100,00 %
31.03.2023 12:32 13,2 C 13,3 C 7,2 C 83 % 995,4 hPa 0,0 l/m 0 min 2 min 134 W/m 19,3 km/h (3 Bft) 100,00 %
31.03.2023 12:34 13,3 C 13,3 C 7,2 C 83 % 995,5 hPa 0,0 l/m 0 min 0 min 168 W/m 16,1 km/h (3 Bft) 100,00 %
31.03.2023 12:36 13,2 C 13,3 C 7,2 C 82 % 995,4 hPa 0,0 l/m 0 min 0 min 241 W/m 19,3 km/h (3 Bft) 100,00 %
31.03.2023 12:38 13,3 C 12,8 C 7,2 C 82 % 995,6 hPa 0,0 l/m 0 min 2 min 122 W/m 32,2 km/h (5 Bft) 100,00 %
31.03.2023 12:40 13,2 C 11,7 C 7,2 C 83 % 995,9 hPa 0,0 l/m 0 min 2 min 81 W/m 35,4 km/h (5 Bft) 100,00 %
31.03.2023 12:42 12,8 C 10,6 C 6,1 C 82 % 995,7 hPa 0,2 l/m 0 min 2 min 106 W/m 22,5 km/h (4 Bft) 100,00 %
31.03.2023 12:44 12,4 C 11,1 C 6,1 C 82 % 995,7 hPa 0,0 l/m 0 min 2 min 199 W/m 32,2 km/h (5 Bft) 97,87 %
31.03.2023 12:46 12,2 C 11,1 C 6,1 C 83 % 995,8 hPa 0,0 l/m 0 min 0 min 228 W/m 41,8 km/h (6 Bft) 100,00 %
31.03.2023 12:48 12,1 C 11,1 C 6,1 C 84 % 995,7 hPa 0,0 l/m 0 min 0 min 189 W/m 29,0 km/h (5 Bft) 97,87 %
31.03.2023 12:50 12,1 C 11,1 C 6,1 C 84 % 995,8 hPa 0,0 l/m 0 min 2 min 167 W/m 22,5 km/h (4 Bft) 97,87 %
31.03.2023 12:52 12,0 C 11,7 C 6,7 C 85 % 995,8 hPa 0,0 l/m 0 min 2 min 222 W/m 25,7 km/h (4 Bft) 100,00 %
31.03.2023 12:54 11,9 C 11,7 C 6,7 C 85 % 995,8 hPa 0,0 l/m 0 min 2 min 266 W/m 22,5 km/h (4 Bft) 97,87 %
31.03.2023 12:56 11,9 C 11,7 C 6,7 C 86 % 995,8 hPa 0,0 l/m 0 min 0 min 259 W/m 22,5 km/h (4 Bft) 100,00 %
31.03.2023 12:58 12,0 C 12,2 C 6,7 C 86 % 995,9 hPa 0,0 l/m 0 min 0 min 263 W/m 25,7 km/h (4 Bft) 100,00 %
31.03.2023 13:00 12,1 C 12,2 C 6,7 C 86 % 995,8 hPa 0,0 l/m 0 min 2 min 226 W/m 19,3 km/h (3 Bft) 95,74 %
31.03.2023 13:02 12,1 C 12,2 C 6,7 C 87 % 995,9 hPa 0,0 l/m 0 min 2 min 184 W/m 19,3 km/h (3 Bft) 97,87 %
31.03.2023 13:04 12,1 C 12,2 C 6,7 C 87 % 995,8 hPa 0,0 l/m 0 min 2 min 177 W/m 12,9 km/h (3 Bft) 97,56 %
31.03.2023 13:06 12,1 C 12,2 C 6,7 C 87 % 995,7 hPa 0,0 l/m 0 min 2 min 194 W/m 16,1 km/h (3 Bft) 98,31 %
31.03.2023 13:08 12,1 C 12,2 C 6,7 C 87 % 995,7 hPa 0,0 l/m 0 min 2 min 230 W/m 32,2 km/h (5 Bft) 94,29 %
31.03.2023 13:10 12,1 C 12,2 C 6,7 C 86 % 995,7 hPa 0,0 l/m 0 min 2 min 247 W/m 25,7 km/h (4 Bft) 95,74 %
31.03.2023 13:12 12,1 C 12,2 C 6,7 C 87 % 995,6 hPa 0,0 l/m 0 min 2 min 247 W/m 35,4 km/h (5 Bft) 97,87 %
31.03.2023 13:14 12,2 C 12,8 C 6,7 C 87 % 995,5 hPa 0,0 l/m 0 min 2 min 253 W/m 22,5 km/h (4 Bft) 97,83 %
31.03.2023 13:16 12,2 C 12,8 C 6,7 C 86 % 995,5 hPa 0,0 l/m 0 min 0 min 263 W/m 25,7 km/h (4 Bft) 97,87 %
31.03.2023 13:18 12,2 C 12,8 C 6,7 C 86 % 995,5 hPa 0,0 l/m 0 min 0 min 273 W/m 29,0 km/h (5 Bft) 97,87 %
31.03.2023 13:20 12,3 C 12,8 C 7,2 C 85 % 995,5 hPa 0,0 l/m 0 min 0 min 261 W/m 19,3 km/h (3 Bft) 95,74 %
31.03.2023 13:22 12,3 C 12,8 C 6,7 C 85 % 995,4 hPa 0,0 l/m 0 min 2 min 242 W/m 25,7 km/h (4 Bft) 97,87 %
31.03.2023 13:24 12,4 C 12,8 C 6,7 C 83 % 995,4 hPa 0,0 l/m 0 min 0 min 244 W/m 54,7 km/h (7 Bft) 97,87 %
31.03.2023 13:26 12,4 C 12,8 C 6,7 C 83 % 995,3 hPa 0,0 l/m 0 min 0 min 255 W/m 25,7 km/h (4 Bft) 95,65 %
31.03.2023 13:28 12,5 C 12,8 C 6,7 C 83 % 995,4 hPa 0,0 l/m 0 min 0 min 271 W/m 38,6 km/h (5 Bft) 95,74 %
31.03.2023 13:30 12,5 C 12,8 C 6,7 C 82 % 995,4 hPa 0,0 l/m 0 min 0 min 302 W/m 32,2 km/h (5 Bft) 97,87 %
31.03.2023 13:32 12,6 C 13,3 C 7,2 C 82 % 995,3 hPa 0,0 l/m 0 min 0 min 330 W/m 25,7 km/h (4 Bft) 100,00 %
31.03.2023 13:34 12,7 C 13,9 C 7,2 C 82 % 995,2 hPa 0,0 l/m 2 min 0 min 360 W/m 29,0 km/h (5 Bft) 97,87 %
31.03.2023 13:36 12,8 C 13,9 C 7,2 C 82 % 995,3 hPa 0,0 l/m 2 min 0 min 374 W/m 19,3 km/h (3 Bft) 97,87 %
31.03.2023 13:38 12,9 C 14,4 C 7,8 C 81 % 995,3 hPa 0,0 l/m 2 min 0 min 418 W/m 25,7 km/h (4 Bft) 100,00 %
31.03.2023 13:40 13,0 C 15,0 C 7,2 C 81 % 995,3 hPa 0,0 l/m 2 min 0 min 479 W/m 51,5 km/h (7 Bft) 100,00 %
31.03.2023 13:42 13,1 C 15,0 C 7,8 C 79 % 995,2 hPa 0,0 l/m 2 min 0 min 416 W/m 29,0 km/h (5 Bft) 100,00 %
31.03.2023 13:44 13,3 C 15,6 C 7,8 C 80 % 995,2 hPa 0,0 l/m 2 min 0 min 430 W/m 19,3 km/h (3 Bft) 100,00 %
31.03.2023 13:46 13,4 C 15,6 C 7,8 C 80 % 995,2 hPa 0,0 l/m 2 min 0 min 478 W/m 29,0 km/h (5 Bft) 100,00 %
31.03.2023 13:48 13,6 C 16,1 C 7,8 C 80 % 995,2 hPa 0,0 l/m 2 min 0 min 486 W/m 35,4 km/h (5 Bft) 100,00 %
31.03.2023 13:50 13,7 C 16,1 C 8,3 C 79 % 995,2 hPa 0,0 l/m 2 min 0 min 444 W/m 32,2 km/h (5 Bft) 100,00 %
31.03.2023 13:52 13,7 C 15,6 C 9,4 C 79 % 995,1 hPa 0,0 l/m 2 min 0 min 369 W/m 32,2 km/h (5 Bft) 97,87 %
31.03.2023 13:54 13,8 C 15,0 C 10,0 C 78 % 995,2 hPa 0,0 l/m 2 min 0 min 338 W/m 29,0 km/h (5 Bft) 100,00 %
31.03.2023 13:56 13,8 C 14,4 C 10,0 C 77 % 995,2 hPa 0,0 l/m 0 min 0 min 292 W/m 32,2 km/h (5 Bft) 100,00 %
31.03.2023 13:58 13,8 C 14,4 C 10,0 C 78 % 995,2 hPa 0,0 l/m 0 min 0 min 298 W/m 22,5 km/h (4 Bft) 100,00 %
31.03.2023 14:00 13,8 C 13,9 C 10,0 C 78 % 995,2 hPa 0,0 l/m 0 min 0 min 211 W/m 16,1 km/h (3 Bft) 100,00 %
31.03.2023 14:02 13,8 C 13,9 C 10,0 C 79 % 995,1 hPa 0,0 l/m 0 min 0 min 199 W/m 16,1 km/h (3 Bft) 97,87 %
31.03.2023 14:04 13,8 C 13,3 C 9,4 C 79 % 995,2 hPa 0,0 l/m 0 min 2 min 126 W/m 35,4 km/h (5 Bft) 100,00 %
31.03.2023 14:06 13,7 C 12,8 C 8,3 C 80 % 995,3 hPa 0,0 l/m 0 min 2 min 94 W/m 32,2 km/h (5 Bft) 97,87 %
31.03.2023 14:08 13,5 C 11,7 C 7,2 C 81 % 995,4 hPa 0,2 l/m 0 min 2 min 88 W/m 29,0 km/h (5 Bft) 97,87 %
31.03.2023 14:10 13,3 C 11,7 C 7,2 C 82 % 995,4 hPa 0,0 l/m 0 min 2 min 131 W/m 38,6 km/h (5 Bft) 95,74 %
31.03.2023 14:12 13,0 C 11,7 C 7,2 C 83 % 995,4 hPa 0,0 l/m 0 min 2 min 204 W/m 22,5 km/h (4 Bft) 94,44 %
31.03.2023 14:14 12,9 C 12,2 C 7,2 C 85 % 995,3 hPa 0,0 l/m 2 min 2 min 352 W/m 29,0 km/h (5 Bft) 94,34 %
31.03.2023 14:16 12,8 C 12,8 C 7,2 C 85 % 995,3 hPa 0,0 l/m 2 min 2 min 464 W/m 35,4 km/h (5 Bft) 96,00 %
31.03.2023 14:18 12,8 C 13,3 C 7,2 C 86 % 995,2 hPa 0,0 l/m 2 min 0 min 434 W/m 32,2 km/h (5 Bft) 93,88 %
31.03.2023 14:20 12,9 C 13,9 C 7,8 C 86 % 995,2 hPa 0,0 l/m 2 min 0 min 381 W/m 16,1 km/h (3 Bft) 95,74 %
31.03.2023 14:22 13,0 C 14,4 C 7,8 C 86 % 995,1 hPa 0,0 l/m 2 min 0 min 397 W/m 16,1 km/h (3 Bft) 93,62 %
31.03.2023 14:24 13,1 C 15,6 C 7,8 C 86 % 995,1 hPa 0,0 l/m 2 min 0 min 531 W/m 19,3 km/h (3 Bft) 93,62 %
31.03.2023 14:26 13,3 C 16,1 C 8,3 C 86 % 995,1 hPa 0,0 l/m 2 min 0 min 542 W/m 22,5 km/h (4 Bft) 95,74 %
31.03.2023 14:28 13,4 C 16,1 C 8,3 C 86 % 995,0 hPa 0,0 l/m 2 min 0 min 459 W/m 22,5 km/h (4 Bft) 93,48 %
31.03.2023 14:30 13,5 C 15,6 C 7,8 C 84 % 994,9 hPa 0,0 l/m 2 min 0 min 391 W/m 45,1 km/h (6 Bft) 95,74 %
31.03.2023 14:32 13,6 C 15,0 C 7,8 C 82 % 994,9 hPa 0,0 l/m 2 min 0 min 385 W/m 41,8 km/h (6 Bft) 95,74 %
31.03.2023 14:34 13,7 C 15,6 C 8,3 C 82 % 994,8 hPa 0,0 l/m 2 min 0 min 423 W/m 35,4 km/h (5 Bft) 95,74 %
31.03.2023 14:36 13,7 C 15,6 C 8,9 C 82 % 994,8 hPa 0,0 l/m 2 min 0 min 516 W/m 38,6 km/h (5 Bft) 95,74 %
31.03.2023 14:38 13,8 C 16,1 C 9,4 C 81 % 994,8 hPa 0,0 l/m 2 min 0 min 533 W/m 45,1 km/h (6 Bft) 95,74 %
31.03.2023 14:40 13,9 C 16,1 C 10,0 C 81 % 994,7 hPa 0,0 l/m 2 min 0 min 540 W/m 25,7 km/h (4 Bft) 95,74 %
31.03.2023 14:42 14,1 C 16,1 C 10,0 C 80 % 994,6 hPa 0,0 l/m 2 min 0 min 527 W/m 32,2 km/h (5 Bft) 97,83 %
31.03.2023 14:44 14,3 C 16,1 C 10,6 C 79 % 994,6 hPa 0,0 l/m 2 min 0 min 499 W/m 22,5 km/h (4 Bft) 93,62 %
31.03.2023 14:46 14,3 C 15,6 C 10,6 C 78 % 994,6 hPa 0,0 l/m 2 min 0 min 498 W/m 25,7 km/h (4 Bft) 93,62 %
31.03.2023 14:48 14,3 C 15,0 C 10,6 C 78 % 994,6 hPa 0,0 l/m 0 min 0 min 300 W/m 19,3 km/h (3 Bft) 89,36 %
31.03.2023 14:50 14,3 C 15,0 C 10,6 C 77 % 994,6 hPa 0,0 l/m 0 min 0 min 194 W/m 35,4 km/h (5 Bft) 95,74 %
31.03.2023 14:52 14,3 C 14,4 C 10,6 C 77 % 994,6 hPa 0,0 l/m 0 min 0 min 247 W/m 35,4 km/h (5 Bft) 95,74 %
31.03.2023 14:54 14,3 C 13,9 C 10,0 C 76 % 994,6 hPa 0,0 l/m 0 min 0 min 181 W/m 25,7 km/h (4 Bft) 97,83 %
31.03.2023 14:56 14,3 C 13,9 C 10,0 C 76 % 994,6 hPa 0,0 l/m 0 min 0 min 166 W/m 41,8 km/h (6 Bft) 95,74 %
31.03.2023 14:58 14,2 C 13,9 C 10,0 C 75 % 994,6 hPa 0,0 l/m 0 min 0 min 255 W/m 51,5 km/h (7 Bft) 95,74 %
31.03.2023 15:00 14,1 C 15,0 C 10,0 C 77 % 994,5 hPa 0,0 l/m 2 min 0 min 338 W/m 19,3 km/h (3 Bft) 93,62 %
31.03.2023 15:02 14,3 C 16,1 C 10,6 C 78 % 994,5 hPa 0,0 l/m 2 min 0 min 578 W/m 29,0 km/h (5 Bft) 93,62 %
31.03.2023 15:04 14,3 C 17,2 C 10,6 C 77 % 994,4 hPa 0,0 l/m 2 min 0 min 727 W/m 29,0 km/h (5 Bft) 97,92 %
31.03.2023 15:06 14,5 C 17,8 C 11,1 C 76 % 994,3 hPa 0,0 l/m 2 min 0 min 733 W/m 29,0 km/h (5 Bft) 97,83 %
31.03.2023 15:08 14,7 C 17,8 C 11,1 C 75 % 994,4 hPa 0,0 l/m 2 min 0 min 628 W/m 32,2 km/h (5 Bft) 93,62 %
31.03.2023 15:10 14,8 C 17,2 C 11,1 C 75 % 994,3 hPa 0,0 l/m 2 min 0 min 528 W/m 32,2 km/h (5 Bft) 95,74 %
31.03.2023 15:12 14,9 C 17,8 C 11,1 C 74 % 994,4 hPa 0,0 l/m 2 min 0 min 613 W/m 38,6 km/h (5 Bft) 95,74 %
31.03.2023 15:14 15,0 C 17,2 C 11,1 C 74 % 994,4 hPa 0,0 l/m 2 min 0 min 613 W/m 22,5 km/h (4 Bft) 94,29 %
31.03.2023 15:16 15,1 C 16,7 C 11,1 C 72 % 994,4 hPa 0,0 l/m 2 min 0 min 326 W/m 41,8 km/h (6 Bft) 96,00 %
31.03.2023 15:18 15,1 C 16,7 C 11,1 C 72 % 994,3 hPa 0,0 l/m 2 min 0 min 352 W/m 38,6 km/h (5 Bft) 95,74 %
31.03.2023 15:20 15,1 C 16,7 C 11,1 C 73 % 994,3 hPa 0,0 l/m 2 min 0 min 516 W/m 25,7 km/h (4 Bft) 95,74 %
31.03.2023 15:22 15,1 C 16,1 C 11,1 C 72 % 994,2 hPa 0,0 l/m 2 min 0 min 425 W/m 25,7 km/h (4 Bft) 97,87 %
31.03.2023 15:24 15,0 C 15,6 C 11,1 C 71 % 994,3 hPa 0,0 l/m 2 min 0 min 327 W/m 29,0 km/h (5 Bft) 97,87 %
31.03.2023 15:26 14,9 C 15,0 C 11,1 C 71 % 994,4 hPa 0,0 l/m 0 min 0 min 260 W/m 22,5 km/h (4 Bft) 97,83 %
31.03.2023 15:28 14,8 C 15,0 C 10,6 C 71 % 994,3 hPa 0,0 l/m 2 min 2 min 304 W/m 29,0 km/h (5 Bft) 97,87 %
31.03.2023 15:30 14,8 C 15,0 C 10,6 C 71 % 994,3 hPa 0,0 l/m 2 min 0 min 302 W/m 38,6 km/h (5 Bft) 97,87 %
31.03.2023 15:32 14,8 C 15,6 C 10,6 C 71 % 994,3 hPa 0,0 l/m 2 min 0 min 367 W/m 41,8 km/h (6 Bft) 95,74 %
31.03.2023 15:34 14,8 C 15,6 C 11,1 C 72 % 994,3 hPa 0,0 l/m 2 min 0 min 355 W/m 25,7 km/h (4 Bft) 95,74 %
31.03.2023 15:36 14,8 C 15,6 C 11,1 C 72 % 994,3 hPa 0,0 l/m 2 min 0 min 343 W/m 29,0 km/h (5 Bft) 97,87 %
31.03.2023 15:38 14,8 C 15,0 C 11,1 C 71 % 994,2 hPa 0,0 l/m 0 min 0 min 280 W/m 32,2 km/h (5 Bft) 91,30 %
31.03.2023 15:40 14,8 C 15,0 C 10,6 C 71 % 994,2 hPa 0,0 l/m 2 min 0 min 307 W/m 19,3 km/h (3 Bft) 97,87 %
31.03.2023 15:42 14,8 C 15,6 C 10,6 C 71 % 994,2 hPa 0,0 l/m 2 min 0 min 348 W/m 29,0 km/h (5 Bft) 100,00 %
31.03.2023 15:44 14,8 C 15,6 C 11,1 C 71 % 994,1 hPa 0,0 l/m 2 min 0 min 408 W/m 51,5 km/h (7 Bft) 97,87 %
31.03.2023 15:46 14,8 C 15,6 C 11,1 C 71 % 994,1 hPa 0,0 l/m 2 min 2 min 455 W/m 35,4 km/h (5 Bft) 97,87 %
31.03.2023 15:48 14,9 C 16,1 C 11,1 C 71 % 994,1 hPa 0,0 l/m 2 min 0 min 417 W/m 16,1 km/h (3 Bft) 100,00 %
31.03.2023 15:50 15,0 C 16,1 C 11,1 C 72 % 994,0 hPa 0,0 l/m 2 min 0 min 365 W/m 35,4 km/h (5 Bft) 97,83 %
31.03.2023 15:52 15,0 C 15,6 C 11,1 C 71 % 994,2 hPa 0,0 l/m 2 min 0 min 317 W/m 45,1 km/h (6 Bft) 100,00 %
31.03.2023 15:54 15,0 C 15,6 C 11,1 C 71 % 994,1 hPa 0,0 l/m 2 min 0 min 301 W/m 45,1 km/h (6 Bft) 97,87 %
31.03.2023 15:56 15,0 C 15,6 C 11,1 C 70 % 994,0 hPa 0,0 l/m 2 min 0 min 313 W/m 38,6 km/h (5 Bft) 97,87 %
31.03.2023 15:58 15,0 C 15,6 C 11,1 C 71 % 994,1 hPa 0,0 l/m 2 min 0 min 328 W/m 29,0 km/h (5 Bft) 97,87 %
31.03.2023 16:00 15,1 C 15,6 C 11,1 C 71 % 994,0 hPa 0,0 l/m 2 min 0 min 318 W/m 32,2 km/h (5 Bft) 97,87 %
31.03.2023 16:02 15,1 C 15,6 C 11,1 C 71 % 994,0 hPa 0,0 l/m 2 min 0 min 296 W/m 25,7 km/h (4 Bft) 97,87 %
31.03.2023 16:04 15,1 C 15,6 C 11,1 C 71 % 993,9 hPa 0,0 l/m 0 min 0 min 267 W/m 25,7 km/h (4 Bft) 100,00 %
31.03.2023 16:06 15,1 C 15,6 C 11,1 C 71 % 993,9 hPa 0,0 l/m 0 min 0 min 241 W/m 48,3 km/h (6 Bft) 100,00 %
31.03.2023 16:08 15,1 C 15,0 C 11,1 C 70 % 993,9 hPa 0,0 l/m 0 min 0 min 238 W/m 51,5 km/h (7 Bft) 97,87 %
31.03.2023 16:10 15,0 C 15,0 C 11,1 C 70 % 993,9 hPa 0,0 l/m 0 min 0 min 244 W/m 38,6 km/h (5 Bft) 97,87 %
31.03.2023 16:12 15,0 C 15,0 C 11,1 C 70 % 993,9 hPa 0,0 l/m 0 min 0 min 235 W/m 32,2 km/h (5 Bft) 100,00 %
31.03.2023 16:14 14,9 C 15,0 C 10,6 C 70 % 993,9 hPa 0,0 l/m 0 min 0 min 237 W/m 38,6 km/h (5 Bft) 97,87 %
31.03.2023 16:16 14,9 C 14,4 C 10,6 C 70 % 993,9 hPa 0,0 l/m 0 min 2 min 230 W/m 57,9 km/h (7 Bft) 97,87 %
31.03.2023 16:18 14,8 C 14,4 C 10,6 C 70 % 993,9 hPa 0,0 l/m 0 min 0 min 228 W/m 32,2 km/h (5 Bft) 95,65 %
31.03.2023 16:20 14,8 C 14,4 C 10,6 C 70 % 993,9 hPa 0,0 l/m 0 min 0 min 205 W/m 35,4 km/h (5 Bft) 100,00 %
31.03.2023 16:22 14,7 C 14,4 C 10,6 C 70 % 993,9 hPa 0,0 l/m 0 min 0 min 191 W/m 35,4 km/h (5 Bft) 100,00 %
31.03.2023 16:24 14,7 C 14,4 C 10,6 C 71 % 993,9 hPa 0,0 l/m 0 min 2 min 147 W/m 29,0 km/h (5 Bft) 97,87 %
31.03.2023 16:26 14,6 C 13,9 C 10,0 C 71 % 993,9 hPa 0,0 l/m 0 min 2 min 115 W/m 35,4 km/h (5 Bft) 100,00 %
31.03.2023 16:28 14,5 C 13,9 C 9,4 C 73 % 994,0 hPa 0,0 l/m 0 min 2 min 104 W/m 29,0 km/h (5 Bft) 97,87 %
31.03.2023 16:30 14,3 C 13,3 C 8,9 C 74 % 994,0 hPa 0,0 l/m 0 min 2 min 70 W/m 25,7 km/h (4 Bft) 95,74 %
31.03.2023 16:32 14,2 C 12,8 C 8,9 C 76 % 994,1 hPa 0,0 l/m 0 min 2 min 54 W/m 29,0 km/h (5 Bft) 100,00 %
31.03.2023 16:34 13,9 C 12,8 C 8,3 C 77 % 994,1 hPa 0,0 l/m 0 min 2 min 49 W/m 19,3 km/h (3 Bft) 100,00 %
31.03.2023 16:36 13,7 C 12,2 C 7,8 C 78 % 994,3 hPa 0,0 l/m 0 min 2 min 64 W/m 16,1 km/h (3 Bft) 97,87 %
31.03.2023 16:38 13,4 C 12,2 C 7,8 C 80 % 994,2 hPa 0,0 l/m 0 min 2 min 87 W/m 19,3 km/h (3 Bft) 100,00 %
31.03.2023 16:40 13,2 C 12,2 C 7,2 C 82 % 994,3 hPa 0,2 l/m 0 min 2 min 121 W/m 16,1 km/h (3 Bft) 97,87 %
31.03.2023 16:42 12,9 C 12,2 C 7,2 C 84 % 994,3 hPa 0,0 l/m 0 min 2 min 144 W/m 16,1 km/h (3 Bft) 100,00 %
31.03.2023 16:44 12,8 C 12,8 C 7,2 C 85 % 994,3 hPa 0,0 l/m 0 min 2 min 218 W/m 19,3 km/h (3 Bft) 100,00 %
31.03.2023 16:46 12,7 C 13,9 C 7,8 C 87 % 994,3 hPa 0,0 l/m 2 min 2 min 474 W/m 22,5 km/h (4 Bft) 100,00 %
31.03.2023 16:48 12,7 C 13,9 C 7,8 C 88 % 994,3 hPa 0,0 l/m 2 min 0 min 384 W/m 16,1 km/h (3 Bft) 97,87 %
31.03.2023 16:50 12,7 C 12,8 C 7,2 C 88 % 994,2 hPa 0,0 l/m 0 min 0 min 150 W/m 19,3 km/h (3 Bft) 95,74 %
31.03.2023 16:52 12,6 C 12,2 C 7,2 C 88 % 994,3 hPa 0,0 l/m 0 min 0 min 82 W/m 19,3 km/h (3 Bft) 97,87 %
31.03.2023 16:54 12,4 C 12,2 C 7,2 C 88 % 994,4 hPa 0,0 l/m 0 min 2 min 80 W/m 12,9 km/h (3 Bft) 97,87 %
31.03.2023 16:56 12,4 C 11,7 C 7,2 C 88 % 994,4 hPa 0,0 l/m 0 min 2 min 91 W/m 16,1 km/h (3 Bft) 97,87 %
31.03.2023 16:58 12,3 C 11,7 C 7,2 C 88 % 994,4 hPa 0,2 l/m 0 min 2 min 79 W/m 16,1 km/h (3 Bft) 95,65 %
31.03.2023 17:00 12,3 C 11,7 C 7,2 C 88 % 994,4 hPa 0,0 l/m 0 min 2 min 58 W/m 12,9 km/h (3 Bft) 95,74 %
31.03.2023 17:02 12,2 C 11,7 C 7,2 C 89 % 994,5 hPa 0,0 l/m 0 min 2 min 58 W/m 19,3 km/h (3 Bft) 95,74 %
31.03.2023 17:04 12,2 C 11,7 C 7,2 C 89 % 994,5 hPa 0,0 l/m 0 min 2 min 75 W/m 12,9 km/h (3 Bft) 97,87 %
31.03.2023 17:06 12,1 C 11,7 C 6,7 C 89 % 994,3 hPa 0,0 l/m 0 min 2 min 140 W/m 16,1 km/h (3 Bft) 93,62 %
31.03.2023 17:08 12,1 C 12,2 C 7,2 C 89 % 994,2 hPa 0,0 l/m 2 min 2 min 231 W/m 19,3 km/h (3 Bft) 93,62 %
31.03.2023 17:10 12,1 C 12,2 C 7,2 C 90 % 994,1 hPa 0,0 l/m 2 min 0 min 282 W/m 19,3 km/h (3 Bft) 93,62 %
31.03.2023 17:12 12,1 C 13,3 C 7,2 C 90 % 994,0 hPa 0,0 l/m 2 min 0 min 377 W/m 16,1 km/h (3 Bft) 93,48 %
31.03.2023 17:14 12,2 C 13,9 C 7,2 C 90 % 994,1 hPa 0,0 l/m 2 min 0 min 365 W/m 29,0 km/h (5 Bft) 95,74 %
31.03.2023 17:16 12,3 C 13,9 C 7,2 C 90 % 994,1 hPa 0,0 l/m 2 min 0 min 291 W/m 12,9 km/h (3 Bft) 93,62 %
31.03.2023 17:18 12,3 C 13,9 C 7,2 C 90 % 994,0 hPa 0,0 l/m 2 min 0 min 311 W/m 25,7 km/h (4 Bft) 95,74 %
31.03.2023 17:20 12,4 C 13,9 C 7,2 C 90 % 994,0 hPa 0,0 l/m 2 min 0 min 261 W/m 19,3 km/h (3 Bft) 95,74 %
31.03.2023 17:22 12,4 C 13,3 C 7,2 C 89 % 994,1 hPa 0,0 l/m 2 min 0 min 212 W/m 22,5 km/h (4 Bft) 95,74 %
31.03.2023 17:24 12,4 C 12,8 C 7,2 C 89 % 994,1 hPa 0,0 l/m 2 min 0 min 199 W/m 41,8 km/h (6 Bft) 87,23 %
31.03.2023 17:26 12,4 C 12,8 C 7,2 C 88 % 993,9 hPa 0,0 l/m 2 min 0 min 199 W/m 35,4 km/h (5 Bft) 93,48 %
31.03.2023 17:28 12,4 C 12,8 C 7,2 C 87 % 994,0 hPa 0,0 l/m 2 min 2 min 211 W/m 29,0 km/h (5 Bft) 91,49 %
31.03.2023 17:30 12,4 C 12,2 C 7,2 C 87 % 993,9 hPa 0,0 l/m 0 min 2 min 191 W/m 35,4 km/h (5 Bft) 93,62 %
31.03.2023 17:32 12,4 C 12,2 C 7,2 C 87 % 993,9 hPa 0,0 l/m 0 min 0 min 187 W/m 25,7 km/h (4 Bft) 89,36 %
31.03.2023 17:34 12,4 C 12,2 C 7,2 C 87 % 994,0 hPa 0,0 l/m 0 min 0 min 184 W/m 29,0 km/h (5 Bft) 93,62 %
31.03.2023 17:36 12,4 C 12,2 C 7,2 C 86 % 994,1 hPa 0,0 l/m 0 min 0 min 180 W/m 29,0 km/h (5 Bft) 92,00 %
31.03.2023 17:38 12,4 C 12,2 C 7,2 C 86 % 994,0 hPa 0,0 l/m 0 min 0 min 177 W/m 35,4 km/h (5 Bft) 95,65 %
31.03.2023 17:40 12,4 C 12,2 C 7,8 C 86 % 994,0 hPa 0,0 l/m 2 min 0 min 182 W/m 16,1 km/h (3 Bft) 95,74 %
31.03.2023 17:42 12,4 C 12,8 C 7,8 C 86 % 994,0 hPa 0,0 l/m 2 min 0 min 182 W/m 32,2 km/h (5 Bft) 97,87 %
31.03.2023 17:44 12,4 C 12,8 C 7,8 C 86 % 994,0 hPa 0,0 l/m 2 min 0 min 189 W/m 41,8 km/h (6 Bft) 97,87 %
31.03.2023 17:46 12,4 C 12,8 C 8,3 C 85 % 994,0 hPa 0,0 l/m 2 min 0 min 209 W/m 38,6 km/h (5 Bft) 95,74 %
31.03.2023 17:48 12,5 C 12,8 C 8,3 C 85 % 993,9 hPa 0,0 l/m 2 min 0 min 201 W/m 45,1 km/h (6 Bft) 95,74 %
31.03.2023 17:50 12,5 C 12,8 C 8,3 C 84 % 993,9 hPa 0,0 l/m 2 min 0 min 190 W/m 35,4 km/h (5 Bft) 95,74 %
31.03.2023 17:52 12,6 C 12,8 C 8,3 C 84 % 994,0 hPa 0,0 l/m 2 min 0 min 186 W/m 29,0 km/h (5 Bft) 97,83 %
31.03.2023 17:54 12,6 C 12,8 C 8,3 C 84 % 993,9 hPa 0,0 l/m 2 min 0 min 177 W/m 38,6 km/h (5 Bft) 97,87 %
31.03.2023 17:56 12,6 C 12,8 C 8,3 C 84 % 993,9 hPa 0,0 l/m 2 min 0 min 164 W/m 29,0 km/h (5 Bft) 97,87 %
31.03.2023 17:58 12,6 C 12,8 C 8,3 C 84 % 993,9 hPa 0,0 l/m 2 min 0 min 160 W/m 38,6 km/h (5 Bft) 97,87 %
31.03.2023 18:00 12,7 C 12,8 C 8,9 C 84 % 993,9 hPa 0,0 l/m 2 min 0 min 156 W/m 45,1 km/h (6 Bft) 97,87 %
31.03.2023 18:02 12,7 C 12,2 C 8,9 C 83 % 993,9 hPa 0,0 l/m 0 min 0 min 139 W/m 41,8 km/h (6 Bft) 95,74 %
31.03.2023 18:04 12,7 C 12,2 C 8,9 C 83 % 993,9 hPa 0,0 l/m 0 min 0 min 122 W/m 29,0 km/h (5 Bft) 97,87 %
31.03.2023 18:07 12,7 C 12,2 C 8,3 C 83 % 993,9 hPa 0,0 l/m 0 min 0 min 105 W/m 41,8 km/h (6 Bft) 97,22 %
31.03.2023 18:08 12,6 C 12,2 C 8,3 C 82 % 993,9 hPa 0,0 l/m 0 min 0 min 82 W/m 29,0 km/h (5 Bft) 95,65 %
31.03.2023 18:12 12,6 C 12,2 C 8,3 C 82 % 994,0 hPa 0,0 l/m 0 min 0 min 88 W/m 38,6 km/h (5 Bft) 100,00 %
31.03.2023 18:14 12,6 C 11,7 C 8,3 C 83 % 994,0 hPa 0,0 l/m 0 min 0 min 78 W/m 35,4 km/h (5 Bft) 100,00 %
31.03.2023 18:16 12,6 C 11,7 C 8,3 C 83 % 994,0 hPa 0,0 l/m 0 min 0 min 56 W/m 25,7 km/h (4 Bft) 100,00 %
31.03.2023 18:18 12,5 C 11,7 C 7,8 C 84 % 994,0 hPa 0,0 l/m 0 min 2 min 45 W/m 29,0 km/h (5 Bft) 100,00 %
31.03.2023 18:20 12,4 C 11,7 C 7,8 C 84 % 993,9 hPa 0,0 l/m 0 min 2 min 45 W/m 29,0 km/h (5 Bft) 100,00 %
31.03.2023 18:22 12,4 C 11,7 C 7,8 C 84 % 994,0 hPa 0,0 l/m 0 min 2 min 56 W/m 29,0 km/h (5 Bft) 97,83 %
31.03.2023 18:24 12,3 C 11,7 C 7,8 C 85 % 994,0 hPa 0,0 l/m 0 min 2 min 54 W/m 32,2 km/h (5 Bft) 100,00 %
31.03.2023 18:26 12,3 C 11,7 C 7,8 C 85 % 994,0 hPa 0,0 l/m 0 min 2 min 43 W/m 38,6 km/h (5 Bft) 100,00 %
31.03.2023 18:28 12,2 C 11,7 C 7,8 C 85 % 993,9 hPa 0,0 l/m 0 min 2 min 43 W/m 38,6 km/h (5 Bft) 100,00 %
31.03.2023 18:30 12,2 C 11,7 C 7,8 C 84 % 994,0 hPa 0,0 l/m 0 min 2 min 41 W/m 35,4 km/h (5 Bft) 100,00 %
31.03.2023 18:32 12,1 C 11,7 C 7,8 C 84 % 993,9 hPa 0,0 l/m 0 min 2 min 40 W/m 35,4 km/h (5 Bft) 100,00 %
31.03.2023 18:34 12,1 C 11,7 C 7,8 C 84 % 993,9 hPa 0,0 l/m 0 min 2 min 39 W/m 22,5 km/h (4 Bft) 100,00 %
31.03.2023 18:36 12,1 C 11,7 C 7,8 C 85 % 993,9 hPa 0,0 l/m 0 min 2 min 40 W/m 35,4 km/h (5 Bft) 97,87 %
31.03.2023 18:38 12,1 C 11,1 C 7,8 C 85 % 993,9 hPa 0,0 l/m 0 min 2 min 36 W/m 22,5 km/h (4 Bft) 100,00 %
31.03.2023 18:40 12,1 C 11,1 C 7,8 C 85 % 993,9 hPa 0,0 l/m 0 min 2 min 30 W/m 35,4 km/h (5 Bft) 100,00 %
31.03.2023 18:42 12,1 C 11,1 C 7,2 C 85 % 993,8 hPa 0,0 l/m 0 min 2 min 24 W/m 32,2 km/h (5 Bft) 100,00 %
31.03.2023 18:44 12,1 C 11,1 C 7,2 C 85 % 993,8 hPa 0,0 l/m 0 min 2 min 25 W/m 38,6 km/h (5 Bft) 100,00 %
31.03.2023 18:46 12,0 C 10,6 C 7,2 C 85 % 993,7 hPa 0,0 l/m 0 min 2 min 21 W/m 25,7 km/h (4 Bft) 100,00 %
31.03.2023 18:48 12,0 C 10,6 C 6,7 C 86 % 993,8 hPa 0,0 l/m 0 min 2 min 17 W/m 32,2 km/h (5 Bft) 100,00 %
31.03.2023 18:50 11,9 C 10,6 C 6,7 C 86 % 993,8 hPa 0,0 l/m 0 min 2 min 19 W/m 22,5 km/h (4 Bft) 100,00 %
31.03.2023 18:52 11,9 C 10,6 C 6,7 C 86 % 993,7 hPa 0,2 l/m 0 min 2 min 19 W/m 32,2 km/h (5 Bft) 97,87 %
31.03.2023 18:54 11,8 C 10,6 C 6,7 C 87 % 993,8 hPa 0,0 l/m 0 min 2 min 18 W/m 32,2 km/h (5 Bft) 100,00 %
31.03.2023 18:56 11,8 C 10,6 C 6,7 C 87 % 993,8 hPa 0,0 l/m 0 min 2 min 16 W/m 35,4 km/h (5 Bft) 97,87 %
31.03.2023 18:58 11,7 C 10,6 C 6,1 C 87 % 993,9 hPa 0,0 l/m 0 min 2 min 17 W/m 19,3 km/h (3 Bft) 95,74 %
31.03.2023 19:00 11,7 C 10,6 C 6,1 C 87 % 993,9 hPa 0,0 l/m 0 min 2 min 18 W/m 22,5 km/h (4 Bft) 97,87 %
31.03.2023 19:02 11,7 C 10,6 C 6,1 C 88 % 993,9 hPa 0,0 l/m 0 min 2 min 20 W/m 19,3 km/h (3 Bft) 97,87 %
31.03.2023 19:04 11,6 C 10,6 C 6,1 C 88 % 994,0 hPa 0,0 l/m 0 min 2 min 23 W/m 35,4 km/h (5 Bft) 97,83 %
31.03.2023 19:06 11,6 C 10,0 C 6,1 C 88 % 993,9 hPa 0,0 l/m 0 min 2 min 21 W/m 32,2 km/h (5 Bft) 97,87 %
31.03.2023 19:08 11,5 C 10,0 C 6,1 C 88 % 994,0 hPa 0,2 l/m 0 min 2 min 22 W/m 22,5 km/h (4 Bft) 97,87 %
31.03.2023 19:10 11,4 C 10,0 C 6,1 C 89 % 994,0 hPa 0,0 l/m 0 min 2 min 19 W/m 25,7 km/h (4 Bft) 97,87 %
31.03.2023 19:12 11,4 C 10,0 C 6,1 C 89 % 994,0 hPa 0,0 l/m 0 min 2 min 22 W/m 22,5 km/h (4 Bft) 97,87 %
31.03.2023 19:14 11,4 C 10,0 C 6,1 C 89 % 994,0 hPa 0,0 l/m 0 min 2 min 23 W/m 19,3 km/h (3 Bft) 95,74 %
31.03.2023 19:16 11,3 C 10,0 C 6,1 C 89 % 993,9 hPa 0,0 l/m 0 min 2 min 23 W/m 32,2 km/h (5 Bft) 95,65 %
31.03.2023 19:18 11,3 C 10,0 C 6,1 C 89 % 993,9 hPa 0,0 l/m 0 min 2 min 24 W/m 25,7 km/h (4 Bft) 97,87 %
31.03.2023 19:20 11,3 C 10,0 C 6,1 C 89 % 993,9 hPa 0,0 l/m 0 min 2 min 22 W/m 22,5 km/h (4 Bft) 97,87 %
31.03.2023 19:22 11,3 C 10,0 C 6,1 C 89 % 993,9 hPa 0,0 l/m 0 min 2 min 22 W/m 38,6 km/h (5 Bft) 93,62 %
31.03.2023 19:24 11,2 C 10,6 C 6,1 C 90 % 993,9 hPa 0,0 l/m 0 min 2 min 23 W/m 22,5 km/h (4 Bft) 100,00 %
31.03.2023 19:26 11,3 C 10,6 C 6,1 C 90 % 993,8 hPa 0,0 l/m 0 min 2 min 22 W/m 22,5 km/h (4 Bft) 97,87 %
31.03.2023 19:28 11,2 C 10,6 C 6,1 C 90 % 993,8 hPa 0,0 l/m 0 min 2 min 19 W/m 29,0 km/h (5 Bft) 100,00 %
31.03.2023 19:30 11,2 C 10,6 C 6,1 C 90 % 993,9 hPa 0,0 l/m 0 min 2 min 17 W/m 32,2 km/h (5 Bft) 95,65 %
31.03.2023 19:32 11,2 C 10,0 C 6,1 C 90 % 993,9 hPa 0,0 l/m 0 min 2 min 10 W/m 32,2 km/h (5 Bft) 97,87 %
31.03.2023 19:34 11,2 C 10,0 C 6,1 C 90 % 994,0 hPa 0,0 l/m 0 min 2 min 8 W/m 29,0 km/h (5 Bft) 100,00 %
31.03.2023 19:36 11,2 C 10,0 C 6,1 C 90 % 994,0 hPa 0,0 l/m 0 min 2 min 13 W/m 29,0 km/h (5 Bft) 100,00 %
31.03.2023 19:38 11,1 C 10,0 C 6,1 C 90 % 993,9 hPa 0,0 l/m 0 min 2 min 14 W/m 32,2 km/h (5 Bft) 97,87 %
31.03.2023 19:40 11,1 C 10,0 C 6,1 C 90 % 993,8 hPa 0,0 l/m 0 min 0 min 14 W/m 25,7 km/h (4 Bft) 97,87 %
31.03.2023 19:42 11,1 C 10,0 C 6,1 C 91 % 993,8 hPa 0,0 l/m 0 min 0 min 12 W/m 32,2 km/h (5 Bft) 100,00 %
31.03.2023 19:44 11,0 C 10,0 C 5,6 C 91 % 993,9 hPa 0,0 l/m 0 min 2 min 9 W/m 29,0 km/h (5 Bft) 100,00 %
31.03.2023 19:46 10,9 C 10,0 C 6,1 C 91 % 993,9 hPa 0,0 l/m 0 min 2 min 8 W/m 32,2 km/h (5 Bft) 100,00 %
31.03.2023 19:48 10,9 C 9,4 C 6,1 C 91 % 993,9 hPa 0,0 l/m 0 min 2 min 7 W/m 32,2 km/h (5 Bft) 100,00 %
31.03.2023 19:50 10,9 C 9,4 C 6,1 C 91 % 993,8 hPa 0,0 l/m 0 min 2 min 7 W/m 29,0 km/h (5 Bft) 100,00 %
31.03.2023 19:52 10,8 C 9,4 C 6,1 C 91 % 993,7 hPa 0,0 l/m 0 min 2 min 6 W/m 38,6 km/h (5 Bft) 97,87 %
31.03.2023 19:54 10,8 C 9,4 C 5,6 C 91 % 993,8 hPa 0,0 l/m 0 min 2 min 1 W/m 25,7 km/h (4 Bft) 100,00 %
31.03.2023 19:56 10,8 C 9,4 C 5,6 C 92 % 993,7 hPa 0,0 l/m 0 min 2 min 0 W/m 35,4 km/h (5 Bft) 97,83 %
31.03.2023 19:58 10,8 C 10,0 C 5,6 C 92 % 993,7 hPa 0,0 l/m 0 min 2 min 0 W/m 35,4 km/h (5 Bft) 95,74 %
31.03.2023 20:00 10,8 C 10,0 C 5,6 C 92 % 993,8 hPa 0,0 l/m 0 min 2 min 0 W/m 16,1 km/h (3 Bft) 97,87 %
31.03.2023 20:02 10,8 C 10,0 C 5,6 C 92 % 993,8 hPa 0,0 l/m 0 min 0 min 0 W/m 32,2 km/h (5 Bft) 93,62 %
31.03.2023 20:04 10,8 C 10,0 C 5,6 C 92 % 993,8 hPa 0,0 l/m 0 min 0 min 0 W/m 29,0 km/h (5 Bft) 95,74 %
31.03.2023 20:06 10,8 C 10,0 C 5,6 C 92 % 993,8 hPa 0,0 l/m 0 min 0 min 0 W/m 32,2 km/h (5 Bft) 95,74 %
31.03.2023 20:08 10,8 C 10,0 C 5,6 C 91 % 993,8 hPa 0,0 l/m 0 min 2 min 0 W/m 19,3 km/h (3 Bft) 95,74 %
31.03.2023 20:10 10,8 C 10,0 C 5,6 C 91 % 993,8 hPa 0,0 l/m 0 min 2 min 0 W/m 32,2 km/h (5 Bft) 95,65 %
31.03.2023 20:12 10,8 C 10,0 C 5,6 C 91 % 993,8 hPa 0,0 l/m 0 min 2 min 0 W/m 32,2 km/h (5 Bft) 91,49 %
31.03.2023 20:14 10,8 C 10,0 C 5,6 C 91 % 993,8 hPa 0,0 l/m 0 min 2 min 0 W/m 22,5 km/h (4 Bft) 93,62 %
31.03.2023 20:16 10,8 C 10,0 C 5,6 C 91 % 993,8 hPa 0,0 l/m 0 min 2 min 0 W/m 32,2 km/h (5 Bft) 89,36 %
31.03.2023 20:18 10,8 C 10,0 C 5,6 C 91 % 993,8 hPa 0,0 l/m 0 min 2 min 0 W/m 22,5 km/h (4 Bft) 89,36 %
31.03.2023 20:20 10,8 C 10,0 C 5,6 C 91 % 993,7 hPa 0,0 l/m 0 min 0 min 0 W/m 16,1 km/h (3 Bft) 91,49 %
31.03.2023 20:22 10,8 C 10,0 C 5,6 C 91 % 993,8 hPa 0,0 l/m 0 min 2 min 0 W/m 32,2 km/h (5 Bft) 87,23 %
31.03.2023 20:24 10,8 C 10,0 C 5,6 C 91 % 993,8 hPa 0,0 l/m 0 min 2 min 0 W/m 41,8 km/h (6 Bft) 93,48 %
31.03.2023 20:26 10,8 C 10,0 C 5,6 C 91 % 993,8 hPa 0,0 l/m 0 min 2 min 0 W/m 32,2 km/h (5 Bft) 89,36 %
31.03.2023 20:28 10,9 C 10,0 C 5,6 C 90 % 993,7 hPa 0,0 l/m 0 min 0 min 0 W/m 22,5 km/h (4 Bft) 95,74 %
31.03.2023 20:30 10,9 C 10,6 C 5,6 C 90 % 993,8 hPa 0,0 l/m 0 min 0 min 0 W/m 41,8 km/h (6 Bft) 95,74 %
31.03.2023 20:32 10,9 C 10,6 C 5,6 C 89 % 993,9 hPa 0,0 l/m 0 min 0 min 0 W/m 48,3 km/h (6 Bft) 68,09 %
31.03.2023 20:34 11,0 C 10,6 C 5,6 C 89 % 993,9 hPa 0,0 l/m 0 min 0 min 0 W/m 45,1 km/h (6 Bft) 71,05 %
31.03.2023 20:36 11,1 C 10,6 C 5,6 C 89 % 993,8 hPa 0,0 l/m 0 min 0 min 0 W/m 54,7 km/h (7 Bft) 80,85 %
31.03.2023 20:38 11,1 C 10,6 C 5,6 C 88 % 993,9 hPa 0,0 l/m 0 min 0 min 0 W/m 29,0 km/h (5 Bft) 76,09 %
31.03.2023 20:40 11,1 C 10,6 C 5,6 C 88 % 993,8 hPa 0,0 l/m 0 min 0 min 0 W/m 35,4 km/h (5 Bft) 70,21 %
31.03.2023 20:42 11,2 C 10,6 C 6,1 C 87 % 993,9 hPa 0,0 l/m 0 min 0 min 0 W/m 38,6 km/h (5 Bft) 70,21 %
31.03.2023 20:44 11,2 C 10,6 C 6,1 C 87 % 993,8 hPa 0,0 l/m 0 min 0 min 0 W/m 35,4 km/h (5 Bft) 55,32 %
31.03.2023 20:46 11,2 C 10,6 C 6,1 C 87 % 993,9 hPa 0,0 l/m 0 min 0 min 0 W/m 22,5 km/h (4 Bft) 44,68 %
31.03.2023 20:48 11,2 C 10,6 C 6,1 C 87 % 994,1 hPa 0,0 l/m 0 min 0 min 0 W/m 19,3 km/h (3 Bft) 68,75 %
31.03.2023 20:50 11,2 C 10,6 C 6,1 C 87 % 994,0 hPa 0,0 l/m 0 min 0 min 0 W/m 38,6 km/h (5 Bft) 58,70 %
31.03.2023 20:52 11,2 C 10,6 C 6,7 C 87 % 994,0 hPa 0,0 l/m 0 min 2 min 0 W/m 51,5 km/h (7 Bft) 48,94 %
31.03.2023 20:54 11,2 C 10,6 C 6,7 C 87 % 994,0 hPa 0,0 l/m 0 min 0 min 0 W/m 38,6 km/h (5 Bft) 64,86 %
31.03.2023 20:56 11,1 C 10,6 C 6,7 C 87 % 994,1 hPa 0,2 l/m 0 min 0 min 0 W/m 45,1 km/h (6 Bft) 78,72 %
31.03.2023 20:58 11,1 C 10,0 C 6,7 C 88 % 994,1 hPa 0,0 l/m 0 min 0 min 0 W/m 41,8 km/h (6 Bft) 53,19 %
31.03.2023 21:00 11,1 C 10,0 C 6,7 C 88 % 994,0 hPa 0,0 l/m 0 min 0 min 0 W/m 32,2 km/h (5 Bft) 57,41 %
31.03.2023 21:02 11,0 C 10,0 C 6,7 C 88 % 994,1 hPa 0,0 l/m 0 min 0 min 0 W/m 54,7 km/h (7 Bft) 86,84 %
31.03.2023 21:04 10,9 C 10,0 C 6,7 C 89 % 994,1 hPa 0,0 l/m 0 min 2 min 0 W/m 29,0 km/h (5 Bft) 68,75 %
31.03.2023 21:06 10,9 C 10,0 C 6,7 C 89 % 994,0 hPa 0,0 l/m 0 min 2 min 0 W/m 19,3 km/h (3 Bft) 96,36 %
31.03.2023 21:08 10,9 C 10,0 C 6,7 C 89 % 994,0 hPa 0,0 l/m 0 min 2 min 0 W/m 16,1 km/h (3 Bft) 93,62 %
31.03.2023 21:10 10,9 C 10,0 C 6,7 C 89 % 994,1 hPa 0,0 l/m 0 min 2 min 0 W/m 19,3 km/h (3 Bft) 91,49 %
31.03.2023 21:12 10,8 C 10,0 C 6,7 C 89 % 994,0 hPa 0,0 l/m 0 min 2 min 0 W/m 35,4 km/h (5 Bft) 97,87 %
31.03.2023 21:14 10,8 C 10,0 C 6,7 C 89 % 994,0 hPa 0,0 l/m 0 min 2 min 0 W/m 19,3 km/h (3 Bft) 97,87 %
31.03.2023 21:16 10,8 C 10,0 C 6,1 C 89 % 994,0 hPa 0,0 l/m 0 min 2 min 0 W/m 25,7 km/h (4 Bft) 97,87 %
31.03.2023 21:18 10,8 C 10,0 C 6,7 C 89 % 994,0 hPa 0,0 l/m 0 min 2 min 0 W/m 22,5 km/h (4 Bft) 95,65 %
31.03.2023 21:20 10,8 C 10,0 C 6,7 C 89 % 993,9 hPa 0,0 l/m 0 min 2 min 0 W/m 25,7 km/h (4 Bft) 97,37 %
31.03.2023 21:22 10,8 C 10,0 C 6,7 C 89 % 994,0 hPa 0,0 l/m 0 min 2 min 0 W/m 38,6 km/h (5 Bft) 95,83 %
31.03.2023 21:24 10,9 C 10,0 C 6,7 C 89 % 993,9 hPa 0,0 l/m 0 min 2 min 0 W/m 32,2 km/h (5 Bft) 97,87 %
31.03.2023 21:26 10,9 C 10,0 C 6,7 C 89 % 994,0 hPa 0,0 l/m 0 min 2 min 0 W/m 29,0 km/h (5 Bft) 97,87 %
31.03.2023 21:28 10,9 C 10,0 C 6,7 C 89 % 994,0 hPa 0,0 l/m 0 min 2 min 0 W/m 25,7 km/h (4 Bft) 100,00 %
31.03.2023 21:30 10,9 C 10,0 C 6,7 C 89 % 994,0 hPa 0,0 l/m 0 min 2 min 0 W/m 29,0 km/h (5 Bft) 97,87 %
31.03.2023 21:32 10,9 C 10,0 C 6,7 C 89 % 993,9 hPa 0,0 l/m 0 min 2 min 0 W/m 29,0 km/h (5 Bft) 100,00 %
31.03.2023 21:34 10,9 C 10,0 C 6,7 C 88 % 994,0 hPa 0,0 l/m 0 min 2 min 0 W/m 32,2 km/h (5 Bft) 100,00 %
31.03.2023 21:36 10,9 C 10,0 C 6,7 C 88 % 994,1 hPa 0,0 l/m 0 min 2 min 0 W/m 41,8 km/h (6 Bft) 100,00 %
31.03.2023 21:38 10,9 C 10,0 C 6,7 C 88 % 994,0 hPa 0,0 l/m 0 min 2 min 0 W/m 54,7 km/h (7 Bft) 100,00 %
31.03.2023 21:40 10,9 C 10,0 C 6,7 C 88 % 994,0 hPa 0,0 l/m 0 min 2 min 0 W/m 41,8 km/h (6 Bft) 97,87 %
31.03.2023 21:42 10,9 C 10,0 C 6,7 C 88 % 994,0 hPa 0,0 l/m 0 min 2 min 0 W/m 35,4 km/h (5 Bft) 97,83 %
31.03.2023 21:44 10,9 C 10,0 C 6,7 C 88 % 994,0 hPa 0,0 l/m 0 min 2 min 0 W/m 38,6 km/h (5 Bft) 95,74 %
31.03.2023 21:46 10,9 C 10,0 C 6,7 C 88 % 994,0 hPa 0,0 l/m 0 min 2 min 0 W/m 41,8 km/h (6 Bft) 95,74 %
31.03.2023 21:48 10,9 C 10,0 C 6,7 C 88 % 994,0 hPa 0,0 l/m 0 min 2 min 0 W/m 32,2 km/h (5 Bft) 97,87 %
31.03.2023 21:50 10,9 C 10,0 C 6,7 C 88 % 994,0 hPa 0,0 l/m 0 min 2 min 0 W/m 38,6 km/h (5 Bft) 89,36 %
31.03.2023 21:52 10,9 C 10,0 C 6,7 C 88 % 994,0 hPa 0,0 l/m 0 min 2 min 0 W/m 29,0 km/h (5 Bft) 93,62 %
31.03.2023 21:54 10,9 C 10,0 C 6,7 C 88 % 994,0 hPa 0,0 l/m 0 min 2 min 0 W/m 38,6 km/h (5 Bft) 91,30 %
31.03.2023 21:56 10,9 C 10,0 C 6,7 C 88 % 994,0 hPa 0,0 l/m 0 min 2 min 0 W/m 25,7 km/h (4 Bft) 59,26 %
31.03.2023 21:58 10,9 C 10,0 C 6,7 C 88 % 994,0 hPa 0,0 l/m 0 min 2 min 0 W/m 29,0 km/h (5 Bft) 84,78 %
31.03.2023 22:00 10,9 C 10,0 C 6,7 C 88 % 994,1 hPa 0,0 l/m 0 min 0 min 0 W/m 25,7 km/h (4 Bft) 97,87 %
31.03.2023 22:02 10,9 C 10,0 C 6,7 C 88 % 994,0 hPa 0,0 l/m 0 min 0 min 0 W/m 29,0 km/h (5 Bft) 85,11 %
31.03.2023 22:04 10,8 C 10,0 C 6,7 C 88 % 994,0 hPa 0,0 l/m 0 min 0 min 0 W/m 35,4 km/h (5 Bft) 83,33 %
31.03.2023 22:06 10,8 C 10,0 C 6,7 C 88 % 994,1 hPa 0,0 l/m 0 min 0 min 0 W/m 35,4 km/h (5 Bft) 59,57 %
31.03.2023 22:08 10,8 C 10,0 C 6,7 C 88 % 994,0 hPa 0,0 l/m 0 min 0 min 0 W/m 41,8 km/h (6 Bft) 78,26 %
31.03.2023 22:10 10,8 C 10,0 C 6,7 C 88 % 994,0 hPa 0,0 l/m 0 min 2 min 0 W/m 32,2 km/h (5 Bft) 68,09 %
31.03.2023 22:12 10,8 C 10,0 C 6,7 C 88 % 994,0 hPa 0,0 l/m 0 min 0 min 0 W/m 29,0 km/h (5 Bft) 74,47 %
31.03.2023 22:14 10,8 C 10,0 C 6,7 C 88 % 993,9 hPa 0,0 l/m 0 min 0 min 0 W/m 35,4 km/h (5 Bft) 60,38 %
31.03.2023 22:16 10,8 C 10,0 C 6,7 C 88 % 994,0 hPa 0,0 l/m 0 min 0 min 0 W/m 25,7 km/h (4 Bft) 78,72 %
31.03.2023 22:18 10,8 C 10,0 C 6,7 C 88 % 994,0 hPa 0,0 l/m 0 min 0 min 0 W/m 32,2 km/h (5 Bft) 95,74 %
31.03.2023 22:20 10,8 C 10,0 C 6,7 C 88 % 994,0 hPa 0,0 l/m 0 min 0 min 0 W/m 41,8 km/h (6 Bft) 76,60 %
31.03.2023 22:22 10,8 C 10,0 C 6,7 C 88 % 994,0 hPa 0,0 l/m 0 min 0 min 0 W/m 32,2 km/h (5 Bft) 80,85 %
31.03.2023 22:24 10,8 C 10,0 C 6,7 C 88 % 994,0 hPa 0,0 l/m 0 min 0 min 0 W/m 25,7 km/h (4 Bft) 85,11 %
31.03.2023 22:26 10,8 C 10,0 C 6,7 C 88 % 993,9 hPa 0,0 l/m 0 min 0 min 0 W/m 22,5 km/h (4 Bft) 50,00 %
31.03.2023 22:28 10,7 C 10,0 C 6,7 C 88 % 994,2 hPa 0,0 l/m 0 min 0 min 0 W/m 35,4 km/h (5 Bft) 93,62 %
31.03.2023 22:30 10,8 C 10,0 C 6,7 C 88 % 993,9 hPa 0,0 l/m 0 min 0 min 0 W/m 32,2 km/h (5 Bft) 89,36 %
31.03.2023 22:32 10,8 C 10,0 C 6,7 C 88 % 993,9 hPa 0,0 l/m 0 min 2 min 0 W/m 29,0 km/h (5 Bft) 95,74 %
31.03.2023 22:34 10,7 C 10,0 C 6,7 C 88 % 994,1 hPa 0,0 l/m 0 min 2 min 0 W/m 35,4 km/h (5 Bft) 97,87 %
31.03.2023 22:36 10,7 C 10,0 C 6,7 C 89 % 994,0 hPa 0,0 l/m 0 min 2 min 0 W/m 22,5 km/h (4 Bft) 97,87 %
31.03.2023 22:38 10,7 C 10,0 C 6,7 C 89 % 994,0 hPa 0,0 l/m 0 min 2 min 0 W/m 35,4 km/h (5 Bft) 91,49 %
31.03.2023 22:40 10,7 C 9,4 C 6,7 C 89 % 994,1 hPa 0,0 l/m 0 min 2 min 0 W/m 29,0 km/h (5 Bft) 91,49 %
31.03.2023 22:42 10,7 C 9,4 C 6,1 C 89 % 994,2 hPa 0,0 l/m 0 min 2 min 0 W/m 38,6 km/h (5 Bft) 93,62 %
31.03.2023 22:44 10,6 C 9,4 C 6,1 C 89 % 994,1 hPa 0,0 l/m 0 min 2 min 0 W/m 41,8 km/h (6 Bft) 59,57 %
31.03.2023 22:46 10,6 C 9,4 C 6,1 C 90 % 994,1 hPa 0,0 l/m 0 min 2 min 0 W/m 41,8 km/h (6 Bft) 65,96 %
31.03.2023 22:48 10,5 C 9,4 C 5,6 C 90 % 994,1 hPa 0,0 l/m 0 min 2 min 0 W/m 32,2 km/h (5 Bft) 68,09 %
31.03.2023 22:50 10,5 C 9,4 C 5,6 C 90 % 994,0 hPa 0,0 l/m 0 min 2 min 0 W/m 35,4 km/h (5 Bft) 72,34 %
31.03.2023 22:52 10,4 C 9,4 C 5,6 C 90 % 994,0 hPa 0,0 l/m 0 min 2 min 0 W/m 32,2 km/h (5 Bft) 86,96 %
31.03.2023 22:54 10,4 C 9,4 C 5,6 C 91 % 994,1 hPa 0,0 l/m 0 min 2 min 0 W/m 38,6 km/h (5 Bft) 74,42 %
31.03.2023 22:56 10,4 C 9,4 C 5,6 C 91 % 994,0 hPa 0,0 l/m 0 min 0 min 0 W/m 22,5 km/h (4 Bft) 68,09 %
31.03.2023 22:58 10,3 C 9,4 C 5,6 C 91 % 994,1 hPa 0,0 l/m 0 min 0 min 0 W/m 29,0 km/h (5 Bft) 80,85 %
31.03.2023 23:00 10,3 C 9,4 C 5,6 C 91 % 994,1 hPa 0,0 l/m 0 min 0 min 0 W/m 38,6 km/h (5 Bft) 82,86 %
31.03.2023 23:02 10,3 C 9,4 C 6,1 C 91 % 994,4 hPa 0,0 l/m 0 min 2 min 0 W/m 51,5 km/h (7 Bft) 74,47 %
31.03.2023 23:04 10,3 C 9,4 C 6,1 C 91 % 994,1 hPa 0,0 l/m 0 min 2 min 0 W/m 45,1 km/h (6 Bft) 63,04 %
31.03.2023 23:06 10,3 C 9,4 C 6,1 C 91 % 994,0 hPa 0,0 l/m 0 min 2 min 0 W/m 38,6 km/h (5 Bft) 76,92 %
31.03.2023 23:08 10,3 C 9,4 C 6,1 C 91 % 994,0 hPa 0,0 l/m 0 min 2 min 0 W/m 38,6 km/h (5 Bft) 69,44 %
31.03.2023 23:10 10,2 C 9,4 C 6,1 C 91 % 994,1 hPa 0,0 l/m 0 min 2 min 0 W/m 25,7 km/h (4 Bft) 74,47 %
31.03.2023 23:12 10,2 C 9,4 C 6,1 C 91 % 994,0 hPa 0,0 l/m 0 min 2 min 0 W/m 25,7 km/h (4 Bft) 76,60 %
31.03.2023 23:14 10,2 C 9,4 C 6,1 C 92 % 994,0 hPa 0,0 l/m 0 min 2 min 0 W/m 25,7 km/h (4 Bft) 80,85 %
31.03.2023 23:16 10,2 C 9,4 C 6,1 C 92 % 994,0 hPa 0,0 l/m 0 min 2 min 0 W/m 38,6 km/h (5 Bft) 76,60 %
31.03.2023 23:18 10,2 C 9,4 C 6,1 C 92 % 994,1 hPa 0,0 l/m 0 min 2 min 0 W/m 32,2 km/h (5 Bft) 74,47 %
31.03.2023 23:20 10,2 C 9,4 C 6,1 C 92 % 994,1 hPa 0,0 l/m 0 min 2 min 0 W/m 32,2 km/h (5 Bft) 68,09 %
31.03.2023 23:22 10,2 C 9,4 C 6,1 C 92 % 994,1 hPa 0,0 l/m 0 min 2 min 0 W/m 29,0 km/h (5 Bft) 72,34 %
31.03.2023 23:24 10,1 C 8,9 C 5,6 C 92 % 994,1 hPa 0,0 l/m 0 min 2 min 0 W/m 22,5 km/h (4 Bft) 84,78 %
31.03.2023 23:26 10,1 C 8,9 C 5,6 C 92 % 994,0 hPa 0,0 l/m 0 min 2 min 0 W/m 32,2 km/h (5 Bft) 74,47 %
31.03.2023 23:28 10,1 C 9,4 C 5,6 C 92 % 994,1 hPa 0,0 l/m 0 min 2 min 0 W/m 29,0 km/h (5 Bft) 76,60 %
31.03.2023 23:30 10,1 C 9,4 C 6,1 C 92 % 994,0 hPa 0,0 l/m 0 min 2 min 0 W/m 22,5 km/h (4 Bft) 74,00 %
31.03.2023 23:32 10,1 C 9,4 C 6,1 C 92 % 994,1 hPa 0,0 l/m 0 min 2 min 0 W/m 38,6 km/h (5 Bft) 93,62 %
31.03.2023 23:34 10,1 C 9,4 C 6,1 C 92 % 994,0 hPa 0,0 l/m 0 min 2 min 0 W/m 41,8 km/h (6 Bft) 87,23 %
31.03.2023 23:36 10,1 C 9,4 C 6,1 C 92 % 994,0 hPa 0,0 l/m 0 min 2 min 0 W/m 32,2 km/h (5 Bft) 76,09 %
31.03.2023 23:38 10,1 C 9,4 C 6,1 C 92 % 993,9 hPa 0,0 l/m 0 min 0 min 0 W/m 38,6 km/h (5 Bft) 63,83 %
31.03.2023 23:40 10,2 C 9,4 C 6,1 C 92 % 993,9 hPa 0,0 l/m 0 min 2 min 0 W/m 25,7 km/h (4 Bft) 78,72 %
31.03.2023 23:42 10,2 C 9,4 C 6,1 C 92 % 993,9 hPa 0,0 l/m 0 min 2 min 0 W/m 29,0 km/h (5 Bft) 68,09 %
31.03.2023 23:44 10,2 C 9,4 C 5,6 C 92 % 994,0 hPa 0,0 l/m 0 min 2 min 0 W/m 45,1 km/h (6 Bft) 78,72 %
31.03.2023 23:46 10,2 C 8,9 C 5,6 C 92 % 994,1 hPa 0,0 l/m 0 min 2 min 0 W/m 29,0 km/h (5 Bft) 78,72 %
31.03.2023 23:48 10,2 C 8,9 C 5,6 C 92 % 994,0 hPa 0,2 l/m 0 min 2 min 0 W/m 29,0 km/h (5 Bft) 84,78 %
31.03.2023 23:50 10,1 C 8,9 C 5,6 C 92 % 993,9 hPa 0,0 l/m 0 min 2 min 0 W/m 25,7 km/h (4 Bft) 91,49 %
31.03.2023 23:52 10,1 C 8,9 C 5,6 C 92 % 994,0 hPa 0,0 l/m 0 min 2 min 0 W/m 29,0 km/h (5 Bft) 82,98 %
31.03.2023 23:54 10,1 C 8,9 C 5,6 C 92 % 993,8 hPa 0,0 l/m 0 min 2 min 0 W/m 29,0 km/h (5 Bft) 74,47 %
31.03.2023 23:56 10,1 C 8,9 C 5,6 C 93 % 994,0 hPa 0,0 l/m 0 min 2 min 0 W/m 41,8 km/h (6 Bft) 70,21 %
31.03.2023 23:58 10,1 C 8,3 C 5,6 C 93 % 993,9 hPa 0,0 l/m 0 min 2 min 0 W/m 29,0 km/h (5 Bft) 72,34 %
_ Min-Zeit 07:14 23:58 06:26 15:56 18:46 - - - - 03:10 20:46
Minimum _ 10,1 C 8,3 C 5,6 C 70 % 993,7 hPa - - - - 0,0 km/h (0 Bft) 44,68 %
_ Max-Zeit 15:16 15:06 15:06 04:30 00:00 04:16 10:36 04:05 15:06 16:16 00:02
Maximum _ 15,1 C 17,8 C 11,1 C 94 % 1007,2 hPa 0,2 l/m 2 min 5 min 733 W/m 57,9 km/h
O-SO (7 Bft)
100,00 %
Durchschnitt _ 11,5 C 11,1 C 6,9 C 88 % 997,6 hPa #3,4 l/m #3:10 h #8:42 h 177 W/m 22,6 km/h (4 Bft) 94,86 %
© 2023 W. Hausmann